Wetterdaten: Sonntag, 19.01.2014
Datum Zeit Temp. Aussen +5cm Feuchte Auss Luftdruck Regen Sonnenschein Regendauer UV Solar Windben
19.01.2014 00:00 5,4 C 3,9 C 84 % 997,9 hPa 0,0 l/m 0 min 0 min 0,0 UV-I 0 W/m 18,0 km/h (3 Bft)
19.01.2014 00:02 5,4 C 3,9 C 84 % 998,0 hPa 0,0 l/m 0 min 0 min 0,0 UV-I 0 W/m 15,4 km/h (3 Bft)
19.01.2014 00:04 5,4 C 3,9 C 84 % 998,0 hPa 0,0 l/m 0 min 0 min 0,0 UV-I 0 W/m 20,6 km/h (4 Bft)
19.01.2014 00:06 5,5 C 3,9 C 84 % 998,0 hPa 0,0 l/m 0 min 0 min 0,0 UV-I 0 W/m 23,2 km/h (4 Bft)
19.01.2014 00:08 5,4 C 3,9 C 84 % 998,0 hPa 0,0 l/m 0 min 0 min 0,0 UV-I 0 W/m 15,4 km/h (3 Bft)
19.01.2014 00:10 5,4 C 3,9 C 84 % 998,0 hPa 0,0 l/m 0 min 0 min 0,0 UV-I 0 W/m 18,0 km/h (3 Bft)
19.01.2014 00:12 5,4 C 3,9 C 84 % 998,0 hPa 0,0 l/m 0 min 0 min 0,0 UV-I 0 W/m 18,0 km/h (3 Bft)
19.01.2014 00:14 5,5 C 3,9 C 84 % 998,0 hPa 0,0 l/m 0 min 0 min 0,0 UV-I 0 W/m 18,0 km/h (3 Bft)
19.01.2014 00:16 5,5 C 3,9 C 84 % 998,0 hPa 0,0 l/m 0 min 0 min 0,0 UV-I 0 W/m 12,9 km/h (3 Bft)
19.01.2014 00:18 5,5 C 3,9 C 84 % 998,0 hPa 0,0 l/m 0 min 0 min 0,0 UV-I 0 W/m 18,0 km/h (3 Bft)
19.01.2014 00:20 5,5 C 3,9 C 84 % 998,0 hPa 0,0 l/m 0 min 0 min 0,0 UV-I 0 W/m 15,4 km/h (3 Bft)
19.01.2014 00:22 5,5 C 3,9 C 84 % 998,0 hPa 0,0 l/m 0 min 0 min 0,0 UV-I 0 W/m 20,6 km/h (4 Bft)
19.01.2014 00:24 5,5 C 3,9 C 84 % 998,0 hPa 0,0 l/m 0 min 0 min 0,0 UV-I 0 W/m 20,6 km/h (4 Bft)
19.01.2014 00:26 5,5 C 3,9 C 84 % 998,0 hPa 0,0 l/m 0 min 0 min 0,0 UV-I 0 W/m 12,9 km/h (3 Bft)
19.01.2014 00:28 5,5 C 3,9 C 84 % 998,0 hPa 0,0 l/m 0 min 0 min 0,0 UV-I 0 W/m 25,7 km/h (4 Bft)
19.01.2014 00:30 5,4 C 3,9 C 84 % 998,0 hPa 0,0 l/m 0 min 0 min 0,0 UV-I 0 W/m 15,4 km/h (3 Bft)
19.01.2014 00:32 5,4 C 3,9 C 85 % 998,1 hPa 0,0 l/m 0 min 0 min 0,0 UV-I 0 W/m 15,4 km/h (3 Bft)
19.01.2014 00:34 5,4 C 3,9 C 85 % 998,0 hPa 0,0 l/m 0 min 0 min 0,0 UV-I 0 W/m 15,4 km/h (3 Bft)
19.01.2014 00:36 5,4 C 3,9 C 85 % 998,0 hPa 0,0 l/m 0 min 0 min 0,0 UV-I 0 W/m 12,9 km/h (3 Bft)
19.01.2014 00:38 5,4 C 3,9 C 85 % 998,0 hPa 0,0 l/m 0 min 0 min 0,0 UV-I 0 W/m 15,4 km/h (3 Bft)
19.01.2014 00:40 5,4 C 3,9 C 85 % 997,9 hPa 0,0 l/m 0 min 0 min 0,0 UV-I 0 W/m 12,9 km/h (3 Bft)
19.01.2014 00:42 5,4 C 3,9 C 85 % 998,0 hPa 0,0 l/m 0 min 0 min 0,0 UV-I 0 W/m 12,9 km/h (3 Bft)
19.01.2014 00:44 5,4 C 3,9 C 85 % 997,9 hPa 0,0 l/m 0 min 0 min 0,0 UV-I 0 W/m 15,4 km/h (3 Bft)
19.01.2014 00:46 5,4 C 3,9 C 85 % 997,9 hPa 0,0 l/m 0 min 0 min 0,0 UV-I 0 W/m 18,0 km/h (3 Bft)
19.01.2014 00:48 5,4 C 3,9 C 85 % 997,9 hPa 0,0 l/m 0 min 0 min 0,0 UV-I 0 W/m 20,6 km/h (4 Bft)
19.01.2014 00:50 5,3 C 3,3 C 85 % 998,0 hPa 0,0 l/m 0 min 0 min 0,0 UV-I 0 W/m 23,2 km/h (4 Bft)
19.01.2014 00:52 5,3 C 3,3 C 85 % 997,9 hPa 0,0 l/m 0 min 0 min 0,0 UV-I 0 W/m 20,6 km/h (4 Bft)
19.01.2014 00:54 5,3 C 3,3 C 85 % 997,9 hPa 0,0 l/m 0 min 0 min 0,0 UV-I 0 W/m 15,4 km/h (3 Bft)
19.01.2014 00:56 5,3 C 3,3 C 85 % 997,9 hPa 0,0 l/m 0 min 0 min 0,0 UV-I 0 W/m 15,4 km/h (3 Bft)
19.01.2014 00:58 5,3 C 3,3 C 85 % 997,9 hPa 0,0 l/m 0 min 0 min 0,0 UV-I 0 W/m 18,0 km/h (3 Bft)
19.01.2014 01:00 5,3 C 3,3 C 86 % 997,9 hPa 0,0 l/m 0 min 0 min 0,0 UV-I 0 W/m 15,4 km/h (3 Bft)
19.01.2014 01:02 5,3 C 3,3 C 86 % 997,8 hPa 0,0 l/m 0 min 0 min 0,0 UV-I 0 W/m 18,0 km/h (3 Bft)
19.01.2014 01:04 5,3 C 3,3 C 86 % 997,9 hPa 0,0 l/m 0 min 0 min 0,0 UV-I 0 W/m 30,9 km/h (5 Bft)
19.01.2014 01:06 5,2 C 3,3 C 86 % 997,9 hPa 0,0 l/m 0 min 0 min 0,0 UV-I 0 W/m 12,9 km/h (3 Bft)
19.01.2014 01:08 5,2 C 3,3 C 86 % 997,8 hPa 0,0 l/m 0 min 0 min 0,0 UV-I 0 W/m 7,7 km/h (2 Bft)
19.01.2014 01:10 5,2 C 3,3 C 86 % 997,8 hPa 0,0 l/m 0 min 0 min 0,0 UV-I 0 W/m 25,7 km/h (4 Bft)
19.01.2014 01:12 5,2 C 3,3 C 86 % 997,8 hPa 0,0 l/m 0 min 0 min 0,0 UV-I 0 W/m 20,6 km/h (4 Bft)
19.01.2014 01:14 5,2 C 3,3 C 86 % 997,8 hPa 0,0 l/m 0 min 0 min 0,0 UV-I 0 W/m 18,0 km/h (3 Bft)
19.01.2014 01:16 5,2 C 3,3 C 86 % 997,8 hPa 0,0 l/m 0 min 0 min 0,0 UV-I 0 W/m 10,3 km/h (2 Bft)
19.01.2014 01:18 5,2 C 3,3 C 86 % 997,8 hPa 0,0 l/m 0 min 0 min 0,0 UV-I 0 W/m 15,4 km/h (3 Bft)
19.01.2014 01:20 5,2 C 3,3 C 86 % 997,8 hPa 0,0 l/m 0 min 0 min 0,0 UV-I 0 W/m 15,4 km/h (3 Bft)
19.01.2014 01:22 5,2 C 3,3 C 86 % 997,9 hPa 0,0 l/m 0 min 0 min 0,0 UV-I 0 W/m 20,6 km/h (4 Bft)
19.01.2014 01:24 5,2 C 3,3 C 87 % 997,9 hPa 0,0 l/m 0 min 0 min 0,0 UV-I 0 W/m 12,9 km/h (3 Bft)
19.01.2014 01:26 5,1 C 3,3 C 87 % 997,8 hPa 0,0 l/m 0 min 0 min 0,0 UV-I 0 W/m 25,7 km/h (4 Bft)
19.01.2014 01:28 5,1 C 3,3 C 87 % 997,8 hPa 0,0 l/m 0 min 0 min 0,0 UV-I 0 W/m 12,9 km/h (3 Bft)
19.01.2014 01:30 5,1 C 3,3 C 87 % 997,9 hPa 0,0 l/m 0 min 0 min 0,0 UV-I 0 W/m 10,3 km/h (2 Bft)
19.01.2014 01:32 5,1 C 3,3 C 87 % 997,8 hPa 0,0 l/m 0 min 0 min 0,0 UV-I 0 W/m 25,7 km/h (4 Bft)
19.01.2014 01:34 5,1 C 3,3 C 87 % 997,7 hPa 0,0 l/m 0 min 0 min 0,0 UV-I 0 W/m 12,9 km/h (3 Bft)
19.01.2014 01:36 5,1 C 3,3 C 87 % 997,7 hPa 0,0 l/m 0 min 0 min 0,0 UV-I 0 W/m 15,4 km/h (3 Bft)
19.01.2014 01:38 5,1 C 3,3 C 87 % 997,6 hPa 0,0 l/m 0 min 0 min 0,0 UV-I 0 W/m 18,0 km/h (3 Bft)
19.01.2014 01:40 5,1 C 3,3 C 87 % 997,6 hPa 0,0 l/m 0 min 0 min 0,0 UV-I 0 W/m 18,0 km/h (3 Bft)
19.01.2014 01:42 5,0 C 3,3 C 87 % 997,7 hPa 0,0 l/m 0 min 0 min 0,0 UV-I 0 W/m 12,9 km/h (3 Bft)
19.01.2014 01:44 5,0 C 3,3 C 87 % 997,7 hPa 0,0 l/m 0 min 0 min 0,0 UV-I 0 W/m 25,7 km/h (4 Bft)
19.01.2014 01:46 5,0 C 3,3 C 87 % 997,7 hPa 0,0 l/m 0 min 0 min 0,0 UV-I 0 W/m 20,6 km/h (4 Bft)
19.01.2014 01:48 5,0 C 3,3 C 88 % 997,7 hPa 0,0 l/m 0 min 0 min 0,0 UV-I 0 W/m 15,4 km/h (3 Bft)
19.01.2014 01:50 5,0 C 3,3 C 88 % 997,7 hPa 0,0 l/m 0 min 0 min 0,0 UV-I 0 W/m 12,9 km/h (3 Bft)
19.01.2014 01:52 4,9 C 3,3 C 87 % 997,8 hPa 0,0 l/m 0 min 0 min 0,0 UV-I 0 W/m 12,9 km/h (3 Bft)
19.01.2014 01:54 4,9 C 3,3 C 87 % 997,8 hPa 0,0 l/m 0 min 0 min 0,0 UV-I 0 W/m 25,7 km/h (4 Bft)
19.01.2014 01:56 4,9 C 3,3 C 88 % 997,7 hPa 0,0 l/m 0 min 0 min 0,0 UV-I 0 W/m 23,2 km/h (4 Bft)
19.01.2014 01:58 4,9 C 3,3 C 88 % 997,7 hPa 0,0 l/m 0 min 0 min 0,0 UV-I 0 W/m 20,6 km/h (4 Bft)
19.01.2014 02:00 4,9 C 3,3 C 88 % 997,7 hPa 0,0 l/m 0 min 0 min 0,0 UV-I 0 W/m 18,0 km/h (3 Bft)
19.01.2014 02:02 4,9 C 3,3 C 88 % 997,7 hPa 0,0 l/m 0 min 0 min 0,0 UV-I 0 W/m 20,6 km/h (4 Bft)
19.01.2014 02:04 4,9 C 3,3 C 88 % 997,7 hPa 0,0 l/m 0 min 0 min 0,0 UV-I 0 W/m 20,6 km/h (4 Bft)
19.01.2014 02:06 4,9 C 3,3 C 88 % 997,7 hPa 0,0 l/m 0 min 0 min 0,0 UV-I 0 W/m 15,4 km/h (3 Bft)
19.01.2014 02:08 4,8 C 3,3 C 88 % 997,7 hPa 0,0 l/m 0 min 0 min 0,0 UV-I 0 W/m 30,9 km/h (5 Bft)
19.01.2014 02:10 4,8 C 3,3 C 88 % 997,8 hPa 0,0 l/m 0 min 0 min 0,0 UV-I 0 W/m 18,0 km/h (3 Bft)
19.01.2014 02:12 4,8 C 3,3 C 88 % 997,9 hPa 0,0 l/m 0 min 0 min 0,0 UV-I 0 W/m 28,3 km/h (4 Bft)
19.01.2014 02:14 4,8 C 3,3 C 88 % 997,8 hPa 0,0 l/m 0 min 0 min 0,0 UV-I 0 W/m 20,6 km/h (4 Bft)
19.01.2014 02:16 4,8 C 3,3 C 88 % 997,9 hPa 0,0 l/m 0 min 0 min 0,0 UV-I 0 W/m 30,9 km/h (5 Bft)
19.01.2014 02:18 4,8 C 3,3 C 88 % 997,9 hPa 0,0 l/m 0 min 0 min 0,0 UV-I 0 W/m 20,6 km/h (4 Bft)
19.01.2014 02:20 4,8 C 3,3 C 88 % 997,9 hPa 0,0 l/m 0 min 0 min 0,0 UV-I 0 W/m 23,2 km/h (4 Bft)
19.01.2014 02:22 4,8 C 3,3 C 89 % 997,9 hPa 0,0 l/m 0 min 0 min 0,0 UV-I 0 W/m 23,2 km/h (4 Bft)
19.01.2014 02:24 4,8 C 3,3 C 89 % 997,9 hPa 0,0 l/m 0 min 0 min 0,0 UV-I 0 W/m 23,2 km/h (4 Bft)
19.01.2014 02:26 4,8 C 3,3 C 89 % 997,9 hPa 0,0 l/m 0 min 0 min 0,0 UV-I 0 W/m 25,7 km/h (4 Bft)
19.01.2014 02:28 4,8 C 3,3 C 88 % 997,8 hPa 0,0 l/m 0 min 0 min 0,0 UV-I 0 W/m 28,3 km/h (4 Bft)
19.01.2014 02:30 4,8 C 3,3 C 88 % 997,8 hPa 0,0 l/m 0 min 0 min 0,0 UV-I 0 W/m 20,6 km/h (4 Bft)
19.01.2014 02:32 4,8 C 3,3 C 89 % 997,8 hPa 0,0 l/m 0 min 0 min 0,0 UV-I 0 W/m 28,3 km/h (4 Bft)
19.01.2014 02:34 4,8 C 3,3 C 89 % 997,8 hPa 0,0 l/m 0 min 0 min 0,0 UV-I 0 W/m 18,0 km/h (3 Bft)
19.01.2014 02:36 4,8 C 3,3 C 89 % 997,8 hPa 0,0 l/m 0 min 0 min 0,0 UV-I 0 W/m 25,7 km/h (4 Bft)
19.01.2014 02:38 4,8 C 3,3 C 89 % 997,8 hPa 0,0 l/m 0 min 0 min 0,0 UV-I 0 W/m 20,6 km/h (4 Bft)
19.01.2014 02:40 4,8 C 3,3 C 89 % 997,8 hPa 0,0 l/m 0 min 0 min 0,0 UV-I 0 W/m 12,9 km/h (3 Bft)
19.01.2014 02:42 4,8 C 3,3 C 89 % 997,8 hPa 0,0 l/m 0 min 0 min 0,0 UV-I 0 W/m 23,2 km/h (4 Bft)
19.01.2014 02:44 4,8 C 3,3 C 89 % 997,8 hPa 0,0 l/m 0 min 0 min 0,0 UV-I 0 W/m 23,2 km/h (4 Bft)
19.01.2014 02:46 4,8 C 3,3 C 89 % 997,8 hPa 0,0 l/m 0 min 0 min 0,0 UV-I 0 W/m 25,7 km/h (4 Bft)
19.01.2014 02:48 4,8 C 3,3 C 89 % 997,9 hPa 0,0 l/m 0 min 0 min 0,0 UV-I 0 W/m 23,2 km/h (4 Bft)
19.01.2014 02:50 4,8 C 3,3 C 89 % 997,8 hPa 0,0 l/m 0 min 0 min 0,0 UV-I 0 W/m 15,4 km/h (3 Bft)
19.01.2014 02:52 4,8 C 3,3 C 89 % 997,8 hPa 0,0 l/m 0 min 0 min 0,0 UV-I 0 W/m 18,0 km/h (3 Bft)
19.01.2014 02:54 4,8 C 3,3 C 89 % 997,8 hPa 0,0 l/m 0 min 0 min 0,0 UV-I 0 W/m 18,0 km/h (3 Bft)
19.01.2014 02:56 4,8 C 3,3 C 89 % 997,8 hPa 0,0 l/m 0 min 0 min 0,0 UV-I 0 W/m 7,7 km/h (2 Bft)
19.01.2014 02:58 4,8 C 3,3 C 89 % 997,8 hPa 0,0 l/m 0 min 0 min 0,0 UV-I 0 W/m 15,4 km/h (3 Bft)
19.01.2014 03:00 4,8 C 3,3 C 89 % 997,9 hPa 0,0 l/m 0 min 0 min 0,0 UV-I 0 W/m 18,0 km/h (3 Bft)
19.01.2014 03:02 4,8 C 3,3 C 89 % 997,9 hPa 0,0 l/m 0 min 0 min 0,0 UV-I 0 W/m 15,4 km/h (3 Bft)
19.01.2014 03:04 4,8 C 3,3 C 89 % 997,9 hPa 0,0 l/m 0 min 0 min 0,0 UV-I 0 W/m 12,9 km/h (3 Bft)
19.01.2014 03:06 4,8 C 3,3 C 89 % 997,9 hPa 0,0 l/m 0 min 0 min 0,0 UV-I 0 W/m 12,9 km/h (3 Bft)
19.01.2014 03:08 4,8 C 3,3 C 89 % 997,8 hPa 0,0 l/m 0 min 0 min 0,0 UV-I 0 W/m 15,4 km/h (3 Bft)
19.01.2014 03:10 4,8 C 3,3 C 89 % 997,8 hPa 0,0 l/m 0 min 0 min 0,0 UV-I 0 W/m 23,2 km/h (4 Bft)
19.01.2014 03:12 4,8 C 3,3 C 89 % 997,9 hPa 0,0 l/m 0 min 0 min 0,0 UV-I 0 W/m 18,0 km/h (3 Bft)
19.01.2014 03:14 4,8 C 3,3 C 89 % 997,9 hPa 0,0 l/m 0 min 0 min 0,0 UV-I 0 W/m 23,2 km/h (4 Bft)
19.01.2014 03:16 4,8 C 3,9 C 89 % 997,8 hPa 0,0 l/m 0 min 0 min 0,0 UV-I 0 W/m 15,4 km/h (3 Bft)
19.01.2014 03:18 4,8 C 3,9 C 89 % 997,8 hPa 0,0 l/m 0 min 0 min 0,0 UV-I 0 W/m 15,4 km/h (3 Bft)
19.01.2014 03:20 4,8 C 3,3 C 89 % 997,8 hPa 0,0 l/m 0 min 0 min 0,0 UV-I 0 W/m 18,0 km/h (3 Bft)
19.01.2014 03:22 4,8 C 3,3 C 89 % 997,9 hPa 0,0 l/m 0 min 0 min 0,0 UV-I 0 W/m 20,6 km/h (4 Bft)
19.01.2014 03:24 4,9 C 3,9 C 89 % 997,8 hPa 0,0 l/m 0 min 0 min 0,0 UV-I 0 W/m 12,9 km/h (3 Bft)
19.01.2014 03:26 4,9 C 3,9 C 89 % 997,8 hPa 0,0 l/m 0 min 0 min 0,0 UV-I 0 W/m 15,4 km/h (3 Bft)
19.01.2014 03:28 4,9 C 3,9 C 89 % 997,8 hPa 0,0 l/m 0 min 0 min 0,0 UV-I 0 W/m 7,7 km/h (2 Bft)
19.01.2014 03:30 4,9 C 3,9 C 89 % 997,9 hPa 0,0 l/m 0 min 0 min 0,0 UV-I 0 W/m 18,0 km/h (3 Bft)
19.01.2014 03:32 4,9 C 3,9 C 89 % 997,9 hPa 0,0 l/m 0 min 0 min 0,0 UV-I 0 W/m 15,4 km/h (3 Bft)
19.01.2014 03:34 4,9 C 3,9 C 89 % 997,9 hPa 0,0 l/m 0 min 0 min 0,0 UV-I 0 W/m 15,4 km/h (3 Bft)
19.01.2014 03:36 4,9 C 3,3 C 89 % 997,9 hPa 0,0 l/m 0 min 0 min 0,0 UV-I 0 W/m 12,9 km/h (3 Bft)
19.01.2014 03:38 4,9 C 3,3 C 89 % 997,9 hPa 0,0 l/m 0 min 0 min 0,0 UV-I 0 W/m 12,9 km/h (3 Bft)
19.01.2014 03:40 4,9 C 3,3 C 89 % 997,9 hPa 0,0 l/m 0 min 0 min 0,0 UV-I 0 W/m 18,0 km/h (3 Bft)
19.01.2014 03:42 4,9 C 3,3 C 89 % 997,9 hPa 0,0 l/m 0 min 0 min 0,0 UV-I 0 W/m 12,9 km/h (3 Bft)
19.01.2014 03:44 4,9 C 3,3 C 89 % 997,8 hPa 0,0 l/m 0 min 0 min 0,0 UV-I 0 W/m 10,3 km/h (2 Bft)
19.01.2014 03:46 4,9 C 3,3 C 89 % 997,9 hPa 0,0 l/m 0 min 0 min 0,0 UV-I 0 W/m 15,4 km/h (3 Bft)
19.01.2014 03:48 4,9 C 3,3 C 89 % 997,8 hPa 0,0 l/m 0 min 0 min 0,0 UV-I 0 W/m 12,9 km/h (3 Bft)
19.01.2014 03:50 4,9 C 3,3 C 89 % 997,8 hPa 0,0 l/m 0 min 0 min 0,0 UV-I 0 W/m 7,7 km/h (2 Bft)
19.01.2014 03:52 4,9 C 3,3 C 89 % 997,8 hPa 0,0 l/m 0 min 0 min 0,0 UV-I 0 W/m 12,9 km/h (3 Bft)
19.01.2014 03:54 4,9 C 3,3 C 89 % 997,7 hPa 0,0 l/m 0 min 0 min 0,0 UV-I 0 W/m 10,3 km/h (2 Bft)
19.01.2014 03:56 4,9 C 3,3 C 89 % 997,7 hPa 0,0 l/m 0 min 0 min 0,0 UV-I 0 W/m 18,0 km/h (3 Bft)
19.01.2014 03:58 4,9 C 3,3 C 89 % 997,6 hPa 0,0 l/m 0 min 0 min 0,0 UV-I 0 W/m 12,9 km/h (3 Bft)
19.01.2014 04:00 4,9 C 3,3 C 89 % 997,6 hPa 0,0 l/m 0 min 0 min 0,0 UV-I 0 W/m 10,3 km/h (2 Bft)
19.01.2014 04:02 4,9 C 3,3 C 89 % 997,5 hPa 0,0 l/m 0 min 0 min 0,0 UV-I 0 W/m 12,9 km/h (3 Bft)
19.01.2014 04:04 4,9 C 3,3 C 89 % 997,6 hPa 0,0 l/m 0 min 0 min 0,0 UV-I 0 W/m 12,9 km/h (3 Bft)
19.01.2014 04:06 4,9 C 3,3 C 89 % 997,5 hPa 0,0 l/m 0 min 0 min 0,0 UV-I 0 W/m 5,1 km/h (1 Bft)
19.01.2014 04:08 4,9 C 3,3 C 89 % 997,5 hPa 0,0 l/m 0 min 0 min 0,0 UV-I 0 W/m 23,2 km/h (4 Bft)
19.01.2014 04:10 4,9 C 3,3 C 89 % 997,5 hPa 0,0 l/m 0 min 0 min 0,0 UV-I 0 W/m 15,4 km/h (3 Bft)
19.01.2014 04:12 4,9 C 3,3 C 89 % 997,5 hPa 0,0 l/m 0 min 0 min 0,0 UV-I 0 W/m 12,9 km/h (3 Bft)
19.01.2014 04:14 4,9 C 3,3 C 89 % 997,4 hPa 0,0 l/m 0 min 0 min 0,0 UV-I 0 W/m 15,4 km/h (3 Bft)
19.01.2014 04:16 4,9 C 3,3 C 89 % 997,4 hPa 0,0 l/m 0 min 0 min 0,0 UV-I 0 W/m 5,1 km/h (1 Bft)
19.01.2014 04:18 4,9 C 3,3 C 89 % 997,5 hPa 0,0 l/m 0 min 0 min 0,0 UV-I 0 W/m 18,0 km/h (3 Bft)
19.01.2014 04:20 4,9 C 3,9 C 89 % 997,4 hPa 0,0 l/m 0 min 0 min 0,0 UV-I 0 W/m 15,4 km/h (3 Bft)
19.01.2014 04:22 4,9 C 3,9 C 89 % 997,5 hPa 0,0 l/m 0 min 0 min 0,0 UV-I 0 W/m 12,9 km/h (3 Bft)
19.01.2014 04:24 4,9 C 3,9 C 89 % 997,6 hPa 0,0 l/m 0 min 0 min 0,0 UV-I 0 W/m 20,6 km/h (4 Bft)
19.01.2014 04:26 4,9 C 3,9 C 89 % 997,6 hPa 0,0 l/m 0 min 0 min 0,0 UV-I 0 W/m 25,7 km/h (4 Bft)
19.01.2014 04:28 4,9 C 3,9 C 89 % 997,6 hPa 0,0 l/m 0 min 0 min 0,0 UV-I 0 W/m 18,0 km/h (3 Bft)
19.01.2014 04:30 4,9 C 3,9 C 89 % 997,5 hPa 0,0 l/m 0 min 0 min 0,0 UV-I 0 W/m 5,1 km/h (1 Bft)
19.01.2014 04:32 4,9 C 3,9 C 89 % 997,4 hPa 0,0 l/m 0 min 0 min 0,0 UV-I 0 W/m 12,9 km/h (3 Bft)
19.01.2014 04:34 4,9 C 3,9 C 89 % 997,5 hPa 0,0 l/m 0 min 0 min 0,0 UV-I 0 W/m 20,6 km/h (4 Bft)
19.01.2014 04:36 4,9 C 3,9 C 89 % 997,6 hPa 0,0 l/m 0 min 0 min 0,0 UV-I 0 W/m 20,6 km/h (4 Bft)
19.01.2014 04:38 4,9 C 3,9 C 89 % 997,6 hPa 0,0 l/m 0 min 0 min 0,0 UV-I 0 W/m 10,3 km/h (2 Bft)
19.01.2014 04:40 4,9 C 3,9 C 89 % 997,5 hPa 0,0 l/m 0 min 0 min 0,0 UV-I 0 W/m 15,4 km/h (3 Bft)
19.01.2014 04:42 4,9 C 3,9 C 89 % 997,5 hPa 0,0 l/m 0 min 0 min 0,0 UV-I 0 W/m 15,4 km/h (3 Bft)
19.01.2014 04:44 4,9 C 3,9 C 89 % 997,6 hPa 0,0 l/m 0 min 0 min 0,0 UV-I 0 W/m 15,4 km/h (3 Bft)
19.01.2014 04:46 4,9 C 3,9 C 89 % 997,5 hPa 0,0 l/m 0 min 0 min 0,0 UV-I 0 W/m 18,0 km/h (3 Bft)
19.01.2014 04:48 4,9 C 3,9 C 89 % 997,4 hPa 0,0 l/m 0 min 0 min 0,0 UV-I 0 W/m 12,9 km/h (3 Bft)
19.01.2014 04:50 4,9 C 3,9 C 89 % 997,5 hPa 0,0 l/m 0 min 0 min 0,0 UV-I 0 W/m 12,9 km/h (3 Bft)
19.01.2014 04:52 4,9 C 3,9 C 89 % 997,5 hPa 0,0 l/m 0 min 0 min 0,0 UV-I 0 W/m 10,3 km/h (2 Bft)
19.01.2014 04:54 4,9 C 3,9 C 89 % 997,4 hPa 0,0 l/m 0 min 0 min 0,0 UV-I 0 W/m 15,4 km/h (3 Bft)
19.01.2014 04:56 4,9 C 3,9 C 89 % 997,4 hPa 0,0 l/m 0 min 0 min 0,0 UV-I 0 W/m 12,9 km/h (3 Bft)
19.01.2014 04:58 4,9 C 3,9 C 89 % 997,4 hPa 0,0 l/m 0 min 0 min 0,0 UV-I 0 W/m 0,0 km/h (0 Bft)
19.01.2014 05:00 4,9 C 3,9 C 89 % 997,4 hPa 0,0 l/m 0 min 0 min 0,0 UV-I 0 W/m 0,0 km/h (0 Bft)
19.01.2014 05:02 4,9 C 3,3 C 89 % 997,4 hPa 0,0 l/m 0 min 0 min 0,0 UV-I 0 W/m 7,7 km/h (2 Bft)
19.01.2014 05:04 4,9 C 3,3 C 89 % 997,4 hPa 0,0 l/m 0 min 0 min 0,0 UV-I 0 W/m 5,1 km/h (1 Bft)
19.01.2014 05:06 4,9 C 3,9 C 89 % 997,4 hPa 0,0 l/m 0 min 0 min 0,0 UV-I 0 W/m 5,1 km/h (1 Bft)
19.01.2014 05:08 4,9 C 3,9 C 89 % 997,5 hPa 0,0 l/m 0 min 0 min 0,0 UV-I 0 W/m 12,9 km/h (3 Bft)
19.01.2014 05:10 4,9 C 3,9 C 89 % 997,5 hPa 0,0 l/m 0 min 0 min 0,0 UV-I 0 W/m 7,7 km/h (2 Bft)
19.01.2014 05:12 4,9 C 3,9 C 89 % 997,4 hPa 0,0 l/m 0 min 0 min 0,0 UV-I 0 W/m 10,3 km/h (2 Bft)
19.01.2014 05:14 4,9 C 3,9 C 89 % 997,4 hPa 0,0 l/m 0 min 0 min 0,0 UV-I 0 W/m 15,4 km/h (3 Bft)
19.01.2014 05:16 4,9 C 3,9 C 89 % 997,4 hPa 0,0 l/m 0 min 0 min 0,0 UV-I 0 W/m 7,7 km/h (2 Bft)
19.01.2014 05:18 4,9 C 3,9 C 89 % 997,6 hPa 0,0 l/m 0 min 0 min 0,0 UV-I 0 W/m 12,9 km/h (3 Bft)
19.01.2014 05:20 4,9 C 3,9 C 89 % 997,5 hPa 0,0 l/m 0 min 0 min 0,0 UV-I 0 W/m 18,0 km/h (3 Bft)
19.01.2014 05:22 4,9 C 3,9 C 89 % 997,6 hPa 0,0 l/m 0 min 0 min 0,0 UV-I 0 W/m 18,0 km/h (3 Bft)
19.01.2014 05:24 4,9 C 3,9 C 89 % 997,5 hPa 0,0 l/m 0 min 0 min 0,0 UV-I 0 W/m 12,9 km/h (3 Bft)
19.01.2014 05:26 4,9 C 3,9 C 89 % 997,5 hPa 0,0 l/m 0 min 0 min 0,0 UV-I 0 W/m 20,6 km/h (4 Bft)
19.01.2014 05:28 4,9 C 3,9 C 89 % 997,5 hPa 0,0 l/m 0 min 0 min 0,0 UV-I 0 W/m 10,3 km/h (2 Bft)
19.01.2014 05:30 4,9 C 3,9 C 89 % 997,4 hPa 0,0 l/m 0 min 0 min 0,0 UV-I 0 W/m 12,9 km/h (3 Bft)
19.01.2014 05:32 4,9 C 3,9 C 89 % 997,4 hPa 0,0 l/m 0 min 0 min 0,0 UV-I 0 W/m 10,3 km/h (2 Bft)
19.01.2014 05:34 4,9 C 3,9 C 89 % 997,3 hPa 0,0 l/m 0 min 0 min 0,0 UV-I 0 W/m 18,0 km/h (3 Bft)
19.01.2014 05:36 5,0 C 3,9 C 89 % 997,3 hPa 0,0 l/m 0 min 0 min 0,0 UV-I 0 W/m 18,0 km/h (3 Bft)
19.01.2014 05:38 5,0 C 3,9 C 89 % 997,4 hPa 0,0 l/m 0 min 0 min 0,0 UV-I 0 W/m 15,4 km/h (3 Bft)
19.01.2014 05:40 5,0 C 3,9 C 89 % 997,3 hPa 0,0 l/m 0 min 0 min 0,0 UV-I 0 W/m 10,3 km/h (2 Bft)
19.01.2014 05:42 5,0 C 3,9 C 89 % 997,3 hPa 0,0 l/m 0 min 0 min 0,0 UV-I 0 W/m 10,3 km/h (2 Bft)
19.01.2014 05:44 5,0 C 3,9 C 89 % 997,2 hPa 0,0 l/m 0 min 0 min 0,0 UV-I 0 W/m 15,4 km/h (3 Bft)
19.01.2014 05:46 5,0 C 3,9 C 89 % 997,2 hPa 0,0 l/m 0 min 0 min 0,0 UV-I 0 W/m 12,9 km/h (3 Bft)
19.01.2014 05:48 5,0 C 3,9 C 89 % 997,2 hPa 0,0 l/m 0 min 0 min 0,0 UV-I 0 W/m 5,1 km/h (1 Bft)
19.01.2014 05:50 5,0 C 3,9 C 89 % 997,2 hPa 0,0 l/m 0 min 0 min 0,0 UV-I 0 W/m 15,4 km/h (3 Bft)
19.01.2014 05:52 5,1 C 3,9 C 89 % 997,1 hPa 0,0 l/m 0 min 0 min 0,0 UV-I 0 W/m 18,0 km/h (3 Bft)
19.01.2014 05:54 5,1 C 3,9 C 89 % 997,0 hPa 0,0 l/m 0 min 2 min 0,0 UV-I 0 W/m 15,4 km/h (3 Bft)
19.01.2014 05:56 5,1 C 3,9 C 89 % 997,0 hPa 0,0 l/m 0 min 2 min 0,0 UV-I 0 W/m 15,4 km/h (3 Bft)
19.01.2014 05:58 5,1 C 3,9 C 89 % 997,0 hPa 0,0 l/m 0 min 2 min 0,0 UV-I 0 W/m 20,6 km/h (4 Bft)
19.01.2014 06:00 5,1 C 3,9 C 89 % 996,9 hPa 0,0 l/m 0 min 2 min 0,0 UV-I 0 W/m 5,1 km/h (1 Bft)
19.01.2014 06:02 5,1 C 3,9 C 89 % 996,9 hPa 0,0 l/m 0 min 0 min 0,0 UV-I 0 W/m 25,7 km/h (4 Bft)
19.01.2014 06:04 5,1 C 3,9 C 89 % 997,0 hPa 0,0 l/m 0 min 0 min 0,0 UV-I 0 W/m 12,9 km/h (3 Bft)
19.01.2014 06:06 5,1 C 3,9 C 89 % 996,9 hPa 0,0 l/m 0 min 2 min 0,0 UV-I 0 W/m 10,3 km/h (2 Bft)
19.01.2014 06:08 5,1 C 3,9 C 89 % 997,0 hPa 0,0 l/m 0 min 0 min 0,0 UV-I 0 W/m 2,6 km/h (1 Bft)
19.01.2014 06:10 5,1 C 3,9 C 89 % 997,0 hPa 0,0 l/m 0 min 0 min 0,0 UV-I 0 W/m 15,4 km/h (3 Bft)
19.01.2014 06:12 5,1 C 3,9 C 89 % 997,0 hPa 0,0 l/m 0 min 0 min 0,0 UV-I 0 W/m 23,2 km/h (4 Bft)
19.01.2014 06:14 5,1 C 3,9 C 89 % 996,9 hPa 0,0 l/m 0 min 0 min 0,0 UV-I 0 W/m 18,0 km/h (3 Bft)
19.01.2014 06:16 5,1 C 3,9 C 89 % 996,7 hPa 0,0 l/m 0 min 0 min 0,0 UV-I 0 W/m 25,7 km/h (4 Bft)
19.01.2014 06:18 5,1 C 3,9 C 89 % 996,5 hPa 0,0 l/m 0 min 0 min 0,0 UV-I 0 W/m 33,5 km/h (5 Bft)
19.01.2014 06:20 5,1 C 3,9 C 88 % 996,5 hPa 0,0 l/m 0 min 0 min 0,0 UV-I 0 W/m 20,6 km/h (4 Bft)
19.01.2014 06:22 5,1 C 3,9 C 88 % 996,4 hPa 0,0 l/m 0 min 0 min 0,0 UV-I 0 W/m 20,6 km/h (4 Bft)
19.01.2014 06:24 5,1 C 3,9 C 88 % 996,4 hPa 0,0 l/m 0 min 0 min 0,0 UV-I 0 W/m 20,6 km/h (4 Bft)
19.01.2014 06:26 5,1 C 3,9 C 88 % 996,5 hPa 0,0 l/m 0 min 0 min 0,0 UV-I 0 W/m 15,4 km/h (3 Bft)
19.01.2014 06:28 5,1 C 3,3 C 88 % 996,6 hPa 0,0 l/m 0 min 0 min 0,0 UV-I 0 W/m 25,7 km/h (4 Bft)
19.01.2014 06:30 5,1 C 3,3 C 88 % 996,7 hPa 0,0 l/m 0 min 0 min 0,0 UV-I 0 W/m 15,4 km/h (3 Bft)
19.01.2014 06:32 5,1 C 3,3 C 88 % 996,8 hPa 0,0 l/m 0 min 0 min 0,0 UV-I 0 W/m 18,0 km/h (3 Bft)
19.01.2014 06:34 5,1 C 3,9 C 88 % 996,8 hPa 0,0 l/m 0 min 0 min 0,0 UV-I 0 W/m 12,9 km/h (3 Bft)
19.01.2014 06:36 5,1 C 3,9 C 88 % 996,8 hPa 0,0 l/m 0 min 0 min 0,0 UV-I 0 W/m 20,6 km/h (4 Bft)
19.01.2014 06:38 5,1 C 3,3 C 88 % 996,8 hPa 0,0 l/m 0 min 0 min 0,0 UV-I 0 W/m 12,9 km/h (3 Bft)
19.01.2014 06:40 5,1 C 3,3 C 88 % 996,8 hPa 0,0 l/m 0 min 0 min 0,0 UV-I 0 W/m 15,4 km/h (3 Bft)
19.01.2014 06:42 5,0 C 3,3 C 88 % 996,8 hPa 0,0 l/m 0 min 0 min 0,0 UV-I 0 W/m 18,0 km/h (3 Bft)
19.01.2014 06:44 5,0 C 3,9 C 88 % 996,6 hPa 0,0 l/m 0 min 0 min 0,0 UV-I 0 W/m 18,0 km/h (3 Bft)
19.01.2014 06:46 5,0 C 3,9 C 88 % 996,5 hPa 0,0 l/m 0 min 0 min 0,0 UV-I 0 W/m 12,9 km/h (3 Bft)
19.01.2014 06:48 5,0 C 3,9 C 88 % 996,5 hPa 0,0 l/m 0 min 0 min 0,0 UV-I 0 W/m 23,2 km/h (4 Bft)
19.01.2014 06:50 5,0 C 3,9 C 88 % 996,5 hPa 0,0 l/m 0 min 0 min 0,0 UV-I 0 W/m 12,9 km/h (3 Bft)
19.01.2014 06:52 5,0 C 3,9 C 88 % 996,8 hPa 0,0 l/m 0 min 0 min 0,0 UV-I 0 W/m 12,9 km/h (3 Bft)
19.01.2014 06:54 5,0 C 3,9 C 88 % 996,9 hPa 0,0 l/m 0 min 0 min 0,0 UV-I 0 W/m 15,4 km/h (3 Bft)
19.01.2014 06:56 5,0 C 3,3 C 88 % 996,8 hPa 0,0 l/m 0 min 0 min 0,0 UV-I 0 W/m 23,2 km/h (4 Bft)
19.01.2014 06:58 5,0 C 3,3 C 88 % 996,8 hPa 0,0 l/m 0 min 0 min 0,0 UV-I 0 W/m 18,0 km/h (3 Bft)
19.01.2014 07:00 4,9 C 3,3 C 88 % 996,8 hPa 0,0 l/m 0 min 0 min 0,0 UV-I 0 W/m 12,9 km/h (3 Bft)
19.01.2014 07:02 4,9 C 3,3 C 88 % 996,7 hPa 0,0 l/m 0 min 0 min 0,0 UV-I 0 W/m 20,6 km/h (4 Bft)
19.01.2014 07:04 4,9 C 3,3 C 88 % 996,9 hPa 0,0 l/m 0 min 0 min 0,0 UV-I 0 W/m 18,0 km/h (3 Bft)
19.01.2014 07:06 4,9 C 3,3 C 88 % 996,9 hPa 0,0 l/m 0 min 0 min 0,0 UV-I 0 W/m 15,4 km/h (3 Bft)
19.01.2014 07:08 4,9 C 3,3 C 87 % 996,8 hPa 0,0 l/m 0 min 0 min 0,0 UV-I 0 W/m 20,6 km/h (4 Bft)
19.01.2014 07:10 4,9 C 3,3 C 87 % 996,8 hPa 0,0 l/m 0 min 0 min 0,0 UV-I 0 W/m 20,6 km/h (4 Bft)
19.01.2014 07:12 4,9 C 3,3 C 87 % 996,8 hPa 0,0 l/m 0 min 0 min 0,0 UV-I 0 W/m 18,0 km/h (3 Bft)
19.01.2014 07:14 4,9 C 3,3 C 88 % 996,8 hPa 0,0 l/m 0 min 0 min 0,0 UV-I 0 W/m 20,6 km/h (4 Bft)
19.01.2014 07:16 4,9 C 3,3 C 88 % 996,8 hPa 0,0 l/m 0 min 0 min 0,0 UV-I 0 W/m 12,9 km/h (3 Bft)
19.01.2014 07:18 4,9 C 3,3 C 88 % 996,9 hPa 0,0 l/m 0 min 0 min 0,0 UV-I 0 W/m 15,4 km/h (3 Bft)
19.01.2014 07:20 4,9 C 3,3 C 87 % 996,9 hPa 0,0 l/m 0 min 0 min 0,0 UV-I 0 W/m 15,4 km/h (3 Bft)
19.01.2014 07:22 4,9 C 3,3 C 87 % 996,9 hPa 0,0 l/m 0 min 0 min 0,0 UV-I 0 W/m 18,0 km/h (3 Bft)
19.01.2014 07:24 4,9 C 3,3 C 87 % 996,9 hPa 0,0 l/m 0 min 0 min 0,0 UV-I 0 W/m 23,2 km/h (4 Bft)
19.01.2014 07:26 4,9 C 3,3 C 87 % 996,9 hPa 0,0 l/m 0 min 0 min 0,0 UV-I 0 W/m 12,9 km/h (3 Bft)
19.01.2014 07:28 4,8 C 3,3 C 87 % 996,9 hPa 0,0 l/m 0 min 0 min 0,0 UV-I 0 W/m 20,6 km/h (4 Bft)
19.01.2014 07:30 4,8 C 3,3 C 87 % 996,8 hPa 0,0 l/m 0 min 0 min 0,0 UV-I 0 W/m 12,9 km/h (3 Bft)
19.01.2014 07:32 4,8 C 3,3 C 87 % 996,8 hPa 0,0 l/m 0 min 0 min 0,0 UV-I 0 W/m 23,2 km/h (4 Bft)
19.01.2014 07:34 4,8 C 3,3 C 87 % 996,7 hPa 0,0 l/m 0 min 0 min 0,0 UV-I 0 W/m 18,0 km/h (3 Bft)
19.01.2014 07:36 4,8 C 3,3 C 87 % 996,7 hPa 0,0 l/m 0 min 0 min 0,0 UV-I 0 W/m 15,4 km/h (3 Bft)
19.01.2014 07:38 4,8 C 3,3 C 87 % 996,8 hPa 0,0 l/m 0 min 0 min 0,0 UV-I 0 W/m 15,4 km/h (3 Bft)
19.01.2014 07:40 4,7 C 3,3 C 88 % 996,8 hPa 0,0 l/m 0 min 0 min 0,0 UV-I 0 W/m 18,0 km/h (3 Bft)
19.01.2014 07:42 4,7 C 3,3 C 88 % 996,8 hPa 0,0 l/m 0 min 0 min 0,0 UV-I 0 W/m 23,2 km/h (4 Bft)
19.01.2014 07:44 4,7 C 3,3 C 88 % 996,9 hPa 0,0 l/m 0 min 0 min 0,0 UV-I 0 W/m 28,3 km/h (4 Bft)
19.01.2014 07:46 4,7 C 3,3 C 88 % 996,9 hPa 0,0 l/m 0 min 0 min 0,0 UV-I 0 W/m 15,4 km/h (3 Bft)
19.01.2014 07:48 4,7 C 3,3 C 88 % 996,9 hPa 0,0 l/m 0 min 0 min 0,0 UV-I 0 W/m 20,6 km/h (4 Bft)
19.01.2014 07:50 4,7 C 3,3 C 88 % 996,9 hPa 0,0 l/m 0 min 0 min 0,0 UV-I 0 W/m 23,2 km/h (4 Bft)
19.01.2014 07:52 4,7 C 3,3 C 88 % 996,9 hPa 0,0 l/m 0 min 0 min 0,0 UV-I 0 W/m 20,6 km/h (4 Bft)
19.01.2014 07:54 4,7 C 2,8 C 88 % 996,9 hPa 0,0 l/m 0 min 0 min 0,0 UV-I 0 W/m 20,6 km/h (4 Bft)
19.01.2014 07:56 4,6 C 3,3 C 88 % 997,0 hPa 0,0 l/m 0 min 0 min 0,0 UV-I 0 W/m 20,6 km/h (4 Bft)
19.01.2014 07:58 4,6 C 3,3 C 88 % 997,0 hPa 0,0 l/m 0 min 0 min 0,0 UV-I 0 W/m 25,7 km/h (4 Bft)
19.01.2014 08:00 4,6 C 3,3 C 88 % 996,9 hPa 0,0 l/m 0 min 0 min 0,0 UV-I 0 W/m 15,4 km/h (3 Bft)
19.01.2014 08:02 4,6 C 3,3 C 88 % 997,1 hPa 0,0 l/m 0 min 0 min 0,0 UV-I 0 W/m 25,7 km/h (4 Bft)
19.01.2014 08:04 4,6 C 3,3 C 88 % 997,1 hPa 0,0 l/m 0 min 0 min 0,0 UV-I 0 W/m 23,2 km/h (4 Bft)
19.01.2014 08:06 4,6 C 2,8 C 88 % 997,0 hPa 0,0 l/m 0 min 0 min 0,0 UV-I 0 W/m 20,6 km/h (4 Bft)
19.01.2014 08:08 4,6 C 2,8 C 88 % 997,1 hPa 0,0 l/m 0 min 0 min 0,0 UV-I 0 W/m 15,4 km/h (3 Bft)
19.01.2014 08:10 4,6 C 2,8 C 88 % 997,0 hPa 0,0 l/m 0 min 0 min 0,0 UV-I 0 W/m 23,2 km/h (4 Bft)
19.01.2014 08:12 4,6 C 2,8 C 88 % 997,2 hPa 0,0 l/m 0 min 0 min 0,0 UV-I 0 W/m 12,9 km/h (3 Bft)
19.01.2014 08:14 4,6 C 2,8 C 88 % 997,3 hPa 0,0 l/m 0 min 0 min 0,0 UV-I 0 W/m 20,6 km/h (4 Bft)
19.01.2014 08:16 4,5 C 2,8 C 88 % 997,3 hPa 0,0 l/m 0 min 0 min 0,0 UV-I 0 W/m 28,3 km/h (4 Bft)
19.01.2014 08:18 4,5 C 2,8 C 88 % 997,3 hPa 0,0 l/m 0 min 0 min 0,0 UV-I 0 W/m 20,6 km/h (4 Bft)
19.01.2014 08:20 4,5 C 2,8 C 88 % 997,2 hPa 0,0 l/m 0 min 0 min 0,0 UV-I 0 W/m 18,0 km/h (3 Bft)
19.01.2014 08:22 4,5 C 2,8 C 88 % 997,3 hPa 0,0 l/m 0 min 0 min 0,0 UV-I 0 W/m 10,3 km/h (2 Bft)
19.01.2014 08:24 4,5 C 2,8 C 88 % 997,2 hPa 0,0 l/m 0 min 0 min 0,0 UV-I 0 W/m 15,4 km/h (3 Bft)
19.01.2014 08:26 4,5 C 2,8 C 88 % 997,1 hPa 0,0 l/m 0 min 0 min 0,0 UV-I 0 W/m 18,0 km/h (3 Bft)
19.01.2014 08:28 4,4 C 2,8 C 88 % 997,2 hPa 0,0 l/m 0 min 0 min 0,0 UV-I 0 W/m 12,9 km/h (3 Bft)
19.01.2014 08:30 4,4 C 2,8 C 88 % 997,3 hPa 0,0 l/m 0 min 0 min 0,0 UV-I 0 W/m 12,9 km/h (3 Bft)
19.01.2014 08:32 4,4 C 2,8 C 88 % 997,4 hPa 0,0 l/m 0 min 0 min 0,0 UV-I 0 W/m 20,6 km/h (4 Bft)
19.01.2014 08:34 4,4 C 2,8 C 88 % 997,4 hPa 0,0 l/m 0 min 0 min 0,0 UV-I 5 W/m 23,2 km/h (4 Bft)
19.01.2014 08:36 4,4 C 2,8 C 88 % 997,4 hPa 0,0 l/m 0 min 0 min 0,0 UV-I 5 W/m 12,9 km/h (3 Bft)
19.01.2014 08:38 4,4 C 2,8 C 88 % 997,5 hPa 0,0 l/m 0 min 0 min 0,0 UV-I 7 W/m 18,0 km/h (3 Bft)
19.01.2014 08:40 4,4 C 2,8 C 88 % 997,5 hPa 0,0 l/m 0 min 0 min 0,0 UV-I 7 W/m 18,0 km/h (3 Bft)
19.01.2014 08:42 4,4 C 2,8 C 88 % 997,6 hPa 0,0 l/m 0 min 0 min 0,0 UV-I 7 W/m 18,0 km/h (3 Bft)
19.01.2014 08:44 4,4 C 2,8 C 88 % 997,5 hPa 0,0 l/m 0 min 0 min 0,0 UV-I 9 W/m 25,7 km/h (4 Bft)
19.01.2014 08:46 4,4 C 2,8 C 88 % 997,7 hPa 0,0 l/m 0 min 0 min 0,0 UV-I 11 W/m 10,3 km/h (2 Bft)
19.01.2014 08:48 4,4 C 2,8 C 88 % 997,7 hPa 0,0 l/m 0 min 0 min 0,0 UV-I 12 W/m 20,6 km/h (4 Bft)
19.01.2014 08:50 4,4 C 2,8 C 88 % 997,6 hPa 0,0 l/m 0 min 0 min 0,0 UV-I 12 W/m 12,9 km/h (3 Bft)
19.01.2014 08:52 4,4 C 3,3 C 88 % 997,6 hPa 0,0 l/m 0 min 0 min 0,0 UV-I 14 W/m 20,6 km/h (4 Bft)
19.01.2014 08:54 4,4 C 3,3 C 88 % 997,6 hPa 0,0 l/m 0 min 0 min 0,0 UV-I 16 W/m 18,0 km/h (3 Bft)
19.01.2014 08:56 4,4 C 3,3 C 88 % 997,7 hPa 0,0 l/m 0 min 0 min 0,0 UV-I 16 W/m 20,6 km/h (4 Bft)
19.01.2014 08:58 4,4 C 3,3 C 88 % 997,6 hPa 0,0 l/m 0 min 0 min 0,0 UV-I 18 W/m 20,6 km/h (4 Bft)
19.01.2014 09:00 4,4 C 3,3 C 89 % 997,6 hPa 0,0 l/m 0 min 0 min 0,0 UV-I 19 W/m 23,2 km/h (4 Bft)
19.01.2014 09:02 4,4 C 3,3 C 88 % 997,7 hPa 0,0 l/m 0 min 0 min 0,0 UV-I 19 W/m 12,9 km/h (3 Bft)
19.01.2014 09:04 4,4 C 3,3 C 88 % 997,7 hPa 0,0 l/m 0 min 0 min 0,0 UV-I 21 W/m 23,2 km/h (4 Bft)
19.01.2014 09:06 4,4 C 3,3 C 88 % 997,8 hPa 0,0 l/m 0 min 0 min 0,0 UV-I 21 W/m 23,2 km/h (4 Bft)
19.01.2014 09:08 4,4 C 3,3 C 88 % 997,8 hPa 0,0 l/m 0 min 0 min 0,0 UV-I 23 W/m 25,7 km/h (4 Bft)
19.01.2014 09:10 4,4 C 3,3 C 88 % 997,9 hPa 0,0 l/m 0 min 0 min 0,0 UV-I 23 W/m 28,3 km/h (4 Bft)
19.01.2014 09:12 4,4 C 3,3 C 88 % 997,8 hPa 0,0 l/m 0 min 0 min 0,0 UV-I 23 W/m 23,2 km/h (4 Bft)
19.01.2014 09:14 4,4 C 3,3 C 88 % 997,8 hPa 0,0 l/m 0 min 0 min 0,0 UV-I 25 W/m 23,2 km/h (4 Bft)
19.01.2014 09:16 4,4 C 3,3 C 88 % 997,9 hPa 0,0 l/m 0 min 0 min 0,0 UV-I 25 W/m 23,2 km/h (4 Bft)
19.01.2014 09:18 4,4 C 3,3 C 88 % 997,9 hPa 0,0 l/m 0 min 0 min 0,0 UV-I 25 W/m 10,3 km/h (2 Bft)
19.01.2014 09:20 4,4 C 3,3 C 88 % 997,9 hPa 0,0 l/m 0 min 0 min 0,0 UV-I 25 W/m 10,3 km/h (2 Bft)
19.01.2014 09:22 4,4 C 2,8 C 88 % 997,9 hPa 0,0 l/m 0 min 0 min 0,0 UV-I 25 W/m 28,3 km/h (4 Bft)
19.01.2014 09:24 4,4 C 2,8 C 88 % 997,9 hPa 0,0 l/m 0 min 0 min 0,0 UV-I 25 W/m 12,9 km/h (3 Bft)
19.01.2014 09:26 4,4 C 3,3 C 88 % 997,9 hPa 0,0 l/m 0 min 0 min 0,0 UV-I 25 W/m 25,7 km/h (4 Bft)
19.01.2014 09:28 4,4 C 2,8 C 89 % 997,9 hPa 0,0 l/m 0 min 0 min 0,0 UV-I 26 W/m 12,9 km/h (3 Bft)
19.01.2014 09:30 4,4 C 3,3 C 89 % 998,0 hPa 0,0 l/m 0 min 0 min 0,0 UV-I 28 W/m 18,0 km/h (3 Bft)
19.01.2014 09:32 4,4 C 3,3 C 89 % 998,0 hPa 0,0 l/m 0 min 0 min 0,0 UV-I 28 W/m 10,3 km/h (2 Bft)
19.01.2014 09:34 4,4 C 3,3 C 89 % 998,0 hPa 0,0 l/m 0 min 0 min 0,0 UV-I 30 W/m 10,3 km/h (2 Bft)
19.01.2014 09:36 4,4 C 3,3 C 89 % 998,1 hPa 0,0 l/m 0 min 0 min 0,0 UV-I 32 W/m 18,0 km/h (3 Bft)
19.01.2014 09:38 4,4 C 3,3 C 89 % 998,0 hPa 0,0 l/m 0 min 0 min 0,0 UV-I 32 W/m 5,1 km/h (1 Bft)
19.01.2014 09:40 4,4 C 3,3 C 89 % 998,0 hPa 0,0 l/m 0 min 0 min 0,0 UV-I 32 W/m 5,1 km/h (1 Bft)
19.01.2014 09:42 4,4 C 3,3 C 89 % 998,0 hPa 0,0 l/m 0 min 0 min 0,0 UV-I 32 W/m 15,4 km/h (3 Bft)
19.01.2014 09:44 4,4 C 3,3 C 89 % 998,0 hPa 0,0 l/m 0 min 0 min 0,0 UV-I 32 W/m 12,9 km/h (3 Bft)
19.01.2014 09:46 4,4 C 3,3 C 89 % 998,0 hPa 0,0 l/m 0 min 0 min 0,0 UV-I 32 W/m 10,3 km/h (2 Bft)
19.01.2014 09:48 4,4 C 3,3 C 89 % 998,0 hPa 0,0 l/m 0 min 0 min 0,0 UV-I 32 W/m 12,9 km/h (3 Bft)
19.01.2014 09:50 4,5 C 3,9 C 89 % 998,0 hPa 0,0 l/m 0 min 0 min 0,0 UV-I 32 W/m 10,3 km/h (2 Bft)
19.01.2014 09:52 4,5 C 3,9 C 89 % 998,0 hPa 0,0 l/m 0 min 0 min 0,0 UV-I 32 W/m 5,1 km/h (1 Bft)
19.01.2014 09:54 4,5 C 3,9 C 89 % 998,0 hPa 0,0 l/m 0 min 0 min 0,0 UV-I 32 W/m 12,9 km/h (3 Bft)
19.01.2014 09:56 4,6 C 3,9 C 89 % 998,0 hPa 0,0 l/m 0 min 0 min 0,0 UV-I 30 W/m 7,7 km/h (2 Bft)
19.01.2014 09:58 4,6 C 3,9 C 89 % 998,0 hPa 0,0 l/m 0 min 0 min 0,0 UV-I 30 W/m 2,6 km/h (1 Bft)
19.01.2014 10:00 4,6 C 3,9 C 89 % 998,0 hPa 0,0 l/m 0 min 0 min 0,0 UV-I 28 W/m 20,6 km/h (4 Bft)
19.01.2014 10:02 4,6 C 3,9 C 89 % 998,0 hPa 0,0 l/m 0 min 0 min 0,0 UV-I 26 W/m 12,9 km/h (3 Bft)
19.01.2014 10:04 4,6 C 3,9 C 89 % 998,0 hPa 0,0 l/m 0 min 0 min 0,0 UV-I 28 W/m 18,0 km/h (3 Bft)
19.01.2014 10:06 4,6 C 3,9 C 89 % 998,0 hPa 0,0 l/m 0 min 0 min 0,0 UV-I 30 W/m 10,3 km/h (2 Bft)
19.01.2014 10:08 4,6 C 3,9 C 89 % 998,0 hPa 0,0 l/m 0 min 0 min 0,0 UV-I 32 W/m 10,3 km/h (2 Bft)
19.01.2014 10:10 4,6 C 3,9 C 89 % 998,1 hPa 0,0 l/m 0 min 0 min 0,0 UV-I 35 W/m 7,7 km/h (2 Bft)
19.01.2014 10:12 4,7 C 3,9 C 89 % 998,1 hPa 0,0 l/m 0 min 0 min 0,0 UV-I 42 W/m 10,3 km/h (2 Bft)
19.01.2014 10:14 4,7 C 3,9 C 89 % 998,1 hPa 0,0 l/m 0 min 0 min 0,0 UV-I 47 W/m 18,0 km/h (3 Bft)
19.01.2014 10:16 4,7 C 3,9 C 89 % 998,0 hPa 0,0 l/m 0 min 0 min 0,0 UV-I 53 W/m 10,3 km/h (2 Bft)
19.01.2014 10:18 4,7 C 3,9 C 89 % 998,0 hPa 0,0 l/m 0 min 0 min 0,0 UV-I 60 W/m 7,7 km/h (2 Bft)
19.01.2014 10:20 4,7 C 3,9 C 89 % 998,1 hPa 0,0 l/m 0 min 0 min 0,0 UV-I 63 W/m 15,4 km/h (3 Bft)
19.01.2014 10:22 4,7 C 3,9 C 89 % 998,1 hPa 0,0 l/m 0 min 0 min 0,0 UV-I 65 W/m 12,9 km/h (3 Bft)
19.01.2014 10:24 4,8 C 3,9 C 89 % 998,2 hPa 0,0 l/m 0 min 0 min 0,0 UV-I 67 W/m 23,2 km/h (4 Bft)
19.01.2014 10:26 4,8 C 3,9 C 89 % 998,3 hPa 0,0 l/m 0 min 0 min 0,0 UV-I 70 W/m 12,9 km/h (3 Bft)
19.01.2014 10:28 4,9 C 4,4 C 89 % 998,2 hPa 0,0 l/m 0 min 0 min 0,0 UV-I 74 W/m 10,3 km/h (2 Bft)
19.01.2014 10:30 4,9 C 4,4 C 89 % 998,1 hPa 0,0 l/m 0 min 0 min 0,0 UV-I 76 W/m 15,4 km/h (3 Bft)
19.01.2014 10:32 4,9 C 4,4 C 89 % 998,2 hPa 0,0 l/m 0 min 0 min 0,0 UV-I 76 W/m 15,4 km/h (3 Bft)
19.01.2014 10:34 5,0 C 4,4 C 89 % 998,1 hPa 0,0 l/m 0 min 0 min 0,0 UV-I 76 W/m 18,0 km/h (3 Bft)
19.01.2014 10:36 5,0 C 4,4 C 89 % 998,1 hPa 0,0 l/m 0 min 0 min 0,0 UV-I 77 W/m 18,0 km/h (3 Bft)
19.01.2014 10:38 5,1 C 4,4 C 89 % 998,1 hPa 0,0 l/m 0 min 0 min 0,0 UV-I 79 W/m 12,9 km/h (3 Bft)
19.01.2014 10:40 5,1 C 4,4 C 88 % 998,2 hPa 0,0 l/m 0 min 0 min 0,0 UV-I 86 W/m 15,4 km/h (3 Bft)
19.01.2014 10:42 5,1 C 4,4 C 88 % 998,2 hPa 0,0 l/m 0 min 0 min 0,0 UV-I 91 W/m 10,3 km/h (2 Bft)
19.01.2014 10:44 5,2 C 4,4 C 88 % 998,2 hPa 0,0 l/m 0 min 0 min 0,0 UV-I 95 W/m 18,0 km/h (3 Bft)
19.01.2014 10:46 5,2 C 4,4 C 88 % 998,2 hPa 0,0 l/m 0 min 0 min 0,0 UV-I 102 W/m 20,6 km/h (4 Bft)
19.01.2014 10:48 5,3 C 4,4 C 88 % 998,2 hPa 0,0 l/m 0 min 0 min 0,0 UV-I 107 W/m 20,6 km/h (4 Bft)
19.01.2014 10:50 5,3 C 5,0 C 88 % 998,2 hPa 0,0 l/m 0 min 0 min 0,0 UV-I 113 W/m 20,6 km/h (4 Bft)
19.01.2014 10:52 5,4 C 5,0 C 88 % 998,1 hPa 0,0 l/m 0 min 0 min 0,0 UV-I 120 W/m 15,4 km/h (3 Bft)
19.01.2014 10:54 5,4 C 5,0 C 88 % 998,1 hPa 0,0 l/m 0 min 0 min 0,0 UV-I 118 W/m 12,9 km/h (3 Bft)
19.01.2014 10:56 5,5 C 5,0 C 88 % 998,1 hPa 0,0 l/m 0 min 0 min 0,0 UV-I 113 W/m 15,4 km/h (3 Bft)
19.01.2014 10:58 5,5 C 5,0 C 88 % 998,1 hPa 0,0 l/m 0 min 0 min 0,0 UV-I 104 W/m 20,6 km/h (4 Bft)
19.01.2014 11:00 5,6 C 5,0 C 87 % 998,1 hPa 0,0 l/m 0 min 0 min 0,0 UV-I 97 W/m 18,0 km/h (3 Bft)
19.01.2014 11:02 5,6 C 5,0 C 87 % 998,2 hPa 0,0 l/m 0 min 0 min 0,0 UV-I 91 W/m 25,7 km/h (4 Bft)
19.01.2014 11:04 5,7 C 5,0 C 87 % 998,2 hPa 0,0 l/m 0 min 0 min 0,0 UV-I 88 W/m 18,0 km/h (3 Bft)
19.01.2014 11:06 5,7 C 5,0 C 87 % 998,2 hPa 0,0 l/m 0 min 0 min 0,0 UV-I 90 W/m 12,9 km/h (3 Bft)
19.01.2014 11:08 5,7 C 5,0 C 87 % 998,2 hPa 0,0 l/m 0 min 0 min 0,0 UV-I 93 W/m 15,4 km/h (3 Bft)
19.01.2014 11:10 5,7 C 5,0 C 87 % 998,0 hPa 0,0 l/m 0 min 0 min 0,0 UV-I 93 W/m 23,2 km/h (4 Bft)
19.01.2014 11:12 5,7 C 5,0 C 87 % 998,1 hPa 0,0 l/m 0 min 0 min 0,0 UV-I 90 W/m 20,6 km/h (4 Bft)
19.01.2014 11:14 5,7 C 5,0 C 87 % 998,0 hPa 0,0 l/m 0 min 2 min 0,0 UV-I 86 W/m 20,6 km/h (4 Bft)
19.01.2014 11:16 5,7 C 5,0 C 87 % 998,1 hPa 0,0 l/m 0 min 0 min 0,0 UV-I 83 W/m 18,0 km/h (3 Bft)
19.01.2014 11:18 5,8 C 5,0 C 87 % 998,1 hPa 0,0 l/m 0 min 0 min 0,0 UV-I 81 W/m 15,4 km/h (3 Bft)
19.01.2014 11:20 5,8 C 5,0 C 87 % 998,0 hPa 0,0 l/m 0 min 0 min 0,0 UV-I 81 W/m 7,7 km/h (2 Bft)
19.01.2014 11:22 5,8 C 5,0 C 87 % 998,0 hPa 0,0 l/m 0 min 0 min 0,0 UV-I 74 W/m 7,7 km/h (2 Bft)
19.01.2014 11:24 5,8 C 5,0 C 87 % 998,0 hPa 0,0 l/m 0 min 0 min 0,0 UV-I 70 W/m 15,4 km/h (3 Bft)
19.01.2014 11:26 5,8 C 5,0 C 87 % 998,1 hPa 0,0 l/m 0 min 0 min 0,0 UV-I 69 W/m 15,4 km/h (3 Bft)
19.01.2014 11:28 5,8 C 5,0 C 87 % 998,0 hPa 0,0 l/m 0 min 0 min 0,0 UV-I 69 W/m 18,0 km/h (3 Bft)
19.01.2014 11:30 5,8 C 5,0 C 87 % 998,0 hPa 0,0 l/m 0 min 0 min 0,0 UV-I 69 W/m 18,0 km/h (3 Bft)
19.01.2014 11:32 5,8 C 5,0 C 87 % 998,1 hPa 0,0 l/m 0 min 0 min 0,0 UV-I 70 W/m 25,7 km/h (4 Bft)
19.01.2014 11:34 5,8 C 5,0 C 87 % 998,1 hPa 0,0 l/m 0 min 0 min 0,0 UV-I 74 W/m 23,2 km/h (4 Bft)
19.01.2014 11:36 5,8 C 5,0 C 87 % 998,1 hPa 0,0 l/m 0 min 0 min 0,0 UV-I 77 W/m 25,7 km/h (4 Bft)
19.01.2014 11:38 5,8 C 5,0 C 87 % 998,1 hPa 0,0 l/m 0 min 0 min 0,0 UV-I 81 W/m 10,3 km/h (2 Bft)
19.01.2014 11:40 5,9 C 5,0 C 87 % 998,1 hPa 0,0 l/m 0 min 0 min 0,0 UV-I 84 W/m 20,6 km/h (4 Bft)
19.01.2014 11:42 5,9 C 5,0 C 87 % 998,1 hPa 0,0 l/m 0 min 0 min 0,0 UV-I 86 W/m 20,6 km/h (4 Bft)
19.01.2014 11:44 5,9 C 5,6 C 87 % 998,1 hPa 0,0 l/m 0 min 0 min 0,0 UV-I 84 W/m 15,4 km/h (3 Bft)
19.01.2014 11:46 5,9 C 5,6 C 87 % 998,2 hPa 0,0 l/m 0 min 0 min 0,0 UV-I 83 W/m 18,0 km/h (3 Bft)
19.01.2014 11:48 6,0 C 5,6 C 87 % 998,3 hPa 0,0 l/m 0 min 0 min 0,0 UV-I 81 W/m 10,3 km/h (2 Bft)
19.01.2014 11:50 6,0 C 5,6 C 87 % 998,3 hPa 0,0 l/m 0 min 0 min 0,0 UV-I 81 W/m 20,6 km/h (4 Bft)
19.01.2014 11:52 6,0 C 5,6 C 87 % 998,2 hPa 0,0 l/m 0 min 0 min 0,0 UV-I 79 W/m 25,7 km/h (4 Bft)
19.01.2014 11:54 6,1 C 5,6 C 87 % 998,2 hPa 0,0 l/m 0 min 0 min 0,0 UV-I 77 W/m 10,3 km/h (2 Bft)
19.01.2014 11:56 6,1 C 5,6 C 86 % 998,2 hPa 0,0 l/m 0 min 0 min 0,0 UV-I 81 W/m 18,0 km/h (3 Bft)
19.01.2014 11:58 6,1 C 5,6 C 86 % 998,1 hPa 0,0 l/m 0 min 0 min 0,0 UV-I 91 W/m 20,6 km/h (4 Bft)
19.01.2014 12:00 6,1 C 5,6 C 86 % 998,2 hPa 0,0 l/m 0 min 0 min 0,0 UV-I 102 W/m 15,4 km/h (3 Bft)
19.01.2014 12:02 6,1 C 5,6 C 86 % 998,1 hPa 0,0 l/m 0 min 0 min 0,0 UV-I 116 W/m 20,6 km/h (4 Bft)
19.01.2014 12:04 6,1 C 5,6 C 86 % 998,1 hPa 0,0 l/m 0 min 0 min 0,0 UV-I 118 W/m 10,3 km/h (2 Bft)
19.01.2014 12:06 6,2 C 5,6 C 86 % 998,1 hPa 0,0 l/m 0 min 0 min 0,0 UV-I 109 W/m 20,6 km/h (4 Bft)
19.01.2014 12:08 6,2 C 5,6 C 86 % 998,2 hPa 0,0 l/m 0 min 0 min 0,0 UV-I 98 W/m 20,6 km/h (4 Bft)
19.01.2014 12:10 6,2 C 5,6 C 86 % 998,1 hPa 0,0 l/m 0 min 0 min 0,0 UV-I 93 W/m 12,9 km/h (3 Bft)
19.01.2014 12:12 6,2 C 5,6 C 86 % 998,1 hPa 0,0 l/m 0 min 0 min 0,0 UV-I 91 W/m 15,4 km/h (3 Bft)
19.01.2014 12:14 6,2 C 5,6 C 86 % 998,1 hPa 0,0 l/m 0 min 0 min 0,0 UV-I 91 W/m 15,4 km/h (3 Bft)
19.01.2014 12:16 6,2 C 5,6 C 86 % 998,1 hPa 0,0 l/m 0 min 0 min 0,0 UV-I 93 W/m 18,0 km/h (3 Bft)
19.01.2014 12:18 6,2 C 5,6 C 86 % 998,1 hPa 0,0 l/m 0 min 0 min 0,0 UV-I 93 W/m 23,2 km/h (4 Bft)
19.01.2014 12:20 6,2 C 5,6 C 86 % 998,1 hPa 0,0 l/m 0 min 0 min 0,0 UV-I 98 W/m 15,4 km/h (3 Bft)
19.01.2014 12:22 6,2 C 5,6 C 86 % 998,0 hPa 0,0 l/m 0 min 0 min 0,0 UV-I 107 W/m 18,0 km/h (3 Bft)
19.01.2014 12:24 6,2 C 5,6 C 86 % 998,1 hPa 0,0 l/m 0 min 0 min 0,0 UV-I 116 W/m 23,2 km/h (4 Bft)
19.01.2014 12:26 6,2 C 5,6 C 86 % 998,1 hPa 0,0 l/m 0 min 0 min 0,0 UV-I 128 W/m 18,0 km/h (3 Bft)
19.01.2014 12:28 6,3 C 5,6 C 86 % 998,1 hPa 0,0 l/m 0 min 0 min 0,0 UV-I 139 W/m 12,9 km/h (3 Bft)
19.01.2014 12:30 6,3 C 6,1 C 86 % 998,0 hPa 0,0 l/m 0 min 0 min 0,0 UV-I 149 W/m 23,2 km/h (4 Bft)
19.01.2014 12:32 6,4 C 6,1 C 86 % 998,0 hPa 0,0 l/m 0 min 0 min 0,0 UV-I 169 W/m 20,6 km/h (4 Bft)
19.01.2014 12:34 6,4 C 6,1 C 85 % 998,1 hPa 0,0 l/m 0 min 0 min 0,0 UV-I 163 W/m 12,9 km/h (3 Bft)
19.01.2014 12:36 6,4 C 6,1 C 85 % 998,0 hPa 0,0 l/m 0 min 0 min 0,0 UV-I 155 W/m 20,6 km/h (4 Bft)
19.01.2014 12:38 6,5 C 6,1 C 85 % 998,1 hPa 0,0 l/m 0 min 0 min 0,0 UV-I 144 W/m 10,3 km/h (2 Bft)
19.01.2014 12:40 6,5 C 6,1 C 85 % 998,1 hPa 0,0 l/m 0 min 0 min 0,0 UV-I 163 W/m 15,4 km/h (3 Bft)
19.01.2014 12:42 6,5 C 6,1 C 85 % 998,1 hPa 0,0 l/m 0 min 0 min 0,0 UV-I 137 W/m 20,6 km/h (4 Bft)
19.01.2014 12:44 6,5 C 6,1 C 85 % 998,1 hPa 0,0 l/m 0 min 0 min 0,0 UV-I 146 W/m 23,2 km/h (4 Bft)
19.01.2014 12:46 6,6 C 6,1 C 85 % 998,1 hPa 0,0 l/m 0 min 0 min 0,0 UV-I 156 W/m 20,6 km/h (4 Bft)
19.01.2014 12:48 6,6 C 6,1 C 85 % 998,1 hPa 0,0 l/m 0 min 0 min 0,0 UV-I 172 W/m 15,4 km/h (3 Bft)
19.01.2014 12:50 6,7 C 6,1 C 85 % 998,1 hPa 0,0 l/m 2 min 0 min 0,0 UV-I 181 W/m 12,9 km/h (3 Bft)
19.01.2014 12:52 6,8 C 6,7 C 85 % 998,1 hPa 0,0 l/m 0 min 0 min 0,0 UV-I 171 W/m 10,3 km/h (2 Bft)
19.01.2014 12:54 6,9 C 6,7 C 85 % 998,1 hPa 0,0 l/m 2 min 0 min 0,0 UV-I 178 W/m 25,7 km/h (4 Bft)
19.01.2014 12:56 7,0 C 6,7 C 84 % 998,1 hPa 0,0 l/m 2 min 0 min 0,0 UV-I 225 W/m 12,9 km/h (3 Bft)
19.01.2014 12:58 7,1 C 6,7 C 84 % 998,1 hPa 0,0 l/m 2 min 0 min 0,0 UV-I 225 W/m 12,9 km/h (3 Bft)
19.01.2014 13:00 7,1 C 6,7 C 84 % 998,1 hPa 0,0 l/m 2 min 0 min 0,0 UV-I 193 W/m 15,4 km/h (3 Bft)
19.01.2014 13:02 7,2 C 6,7 C 84 % 998,1 hPa 0,0 l/m 0 min 0 min 0,0 UV-I 167 W/m 15,4 km/h (3 Bft)
19.01.2014 13:04 7,2 C 6,7 C 83 % 998,1 hPa 0,0 l/m 0 min 0 min 0,0 UV-I 155 W/m 23,2 km/h (4 Bft)
19.01.2014 13:06 7,2 C 6,7 C 83 % 998,1 hPa 0,0 l/m 0 min 0 min 0,0 UV-I 142 W/m 10,3 km/h (2 Bft)
19.01.2014 13:08 7,2 C 6,7 C 83 % 998,1 hPa 0,0 l/m 0 min 0 min 0,0 UV-I 146 W/m 12,9 km/h (3 Bft)
19.01.2014 13:10 7,2 C 6,7 C 83 % 998,2 hPa 0,0 l/m 0 min 0 min 0,0 UV-I 158 W/m 20,6 km/h (4 Bft)
19.01.2014 13:12 7,1 C 6,7 C 83 % 998,2 hPa 0,0 l/m 2 min 0 min 0,0 UV-I 183 W/m 12,9 km/h (3 Bft)
19.01.2014 13:14 7,1 C 6,7 C 83 % 998,2 hPa 0,0 l/m 2 min 0 min 0,0 UV-I 179 W/m 15,4 km/h (3 Bft)
19.01.2014 13:16 7,2 C 6,7 C 84 % 998,3 hPa 0,0 l/m 2 min 0 min 0,0 UV-I 185 W/m 18,0 km/h (3 Bft)
19.01.2014 13:18 7,3 C 6,7 C 84 % 998,2 hPa 0,0 l/m 2 min 0 min 0,0 UV-I 176 W/m 15,4 km/h (3 Bft)
19.01.2014 13:20 7,3 C 6,7 C 83 % 998,3 hPa 0,0 l/m 2 min 0 min 0,0 UV-I 179 W/m 15,4 km/h (3 Bft)
19.01.2014 13:22 7,3 C 6,7 C 83 % 998,2 hPa 0,0 l/m 2 min 0 min 0,0 UV-I 186 W/m 12,9 km/h (3 Bft)
19.01.2014 13:24 7,3 C 6,7 C 83 % 998,3 hPa 0,0 l/m 2 min 0 min 0,0 UV-I 237 W/m 23,2 km/h (4 Bft)
19.01.2014 13:26 7,4 C 7,2 C 83 % 998,2 hPa 0,0 l/m 2 min 0 min 0,0 UV-I 262 W/m 10,3 km/h (2 Bft)
19.01.2014 13:28 7,6 C 7,2 C 83 % 998,3 hPa 0,0 l/m 2 min 0 min 0,0 UV-I 220 W/m 15,4 km/h (3 Bft)
19.01.2014 13:30 7,7 C 7,2 C 83 % 998,3 hPa 0,0 l/m 2 min 0 min 0,0 UV-I 239 W/m 20,6 km/h (4 Bft)
19.01.2014 13:32 7,6 C 7,2 C 82 % 998,3 hPa 0,0 l/m 2 min 0 min 0,0 UV-I 197 W/m 20,6 km/h (4 Bft)
19.01.2014 13:34 7,6 C 6,7 C 82 % 998,3 hPa 0,0 l/m 2 min 0 min 0,0 UV-I 209 W/m 20,6 km/h (4 Bft)
19.01.2014 13:36 7,6 C 6,7 C 82 % 998,3 hPa 0,0 l/m 0 min 0 min 0,0 UV-I 111 W/m 20,6 km/h (4 Bft)
19.01.2014 13:38 7,6 C 6,7 C 82 % 998,2 hPa 0,0 l/m 0 min 0 min 0,0 UV-I 125 W/m 18,0 km/h (3 Bft)
19.01.2014 13:40 7,4 C 6,7 C 82 % 998,3 hPa 0,0 l/m 0 min 0 min 0,0 UV-I 102 W/m 20,6 km/h (4 Bft)
19.01.2014 13:42 7,4 C 6,1 C 83 % 998,3 hPa 0,0 l/m 0 min 0 min 0,0 UV-I 114 W/m 12,9 km/h (3 Bft)
19.01.2014 13:44 7,3 C 6,1 C 83 % 998,2 hPa 0,0 l/m 0 min 0 min 0,0 UV-I 109 W/m 10,3 km/h (2 Bft)
19.01.2014 13:46 7,3 C 6,1 C 83 % 998,3 hPa 0,0 l/m 0 min 0 min 0,0 UV-I 102 W/m 10,3 km/h (2 Bft)
19.01.2014 13:48 7,2 C 6,1 C 83 % 998,3 hPa 0,0 l/m 0 min 0 min 0,0 UV-I 121 W/m 18,0 km/h (3 Bft)
19.01.2014 13:50 7,2 C 6,1 C 83 % 998,4 hPa 0,0 l/m 0 min 0 min 0,0 UV-I 135 W/m 10,3 km/h (2 Bft)
19.01.2014 13:52 7,2 C 6,1 C 83 % 998,3 hPa 0,0 l/m 0 min 0 min 0,0 UV-I 107 W/m 10,3 km/h (2 Bft)
19.01.2014 13:54 7,2 C 6,1 C 84 % 998,3 hPa 0,0 l/m 0 min 0 min 0,0 UV-I 102 W/m 7,7 km/h (2 Bft)
19.01.2014 13:56 7,2 C 6,1 C 83 % 998,3 hPa 0,0 l/m 0 min 0 min 0,0 UV-I 90 W/m 12,9 km/h (3 Bft)
19.01.2014 13:58 7,2 C 6,1 C 84 % 998,3 hPa 0,0 l/m 0 min 0 min 0,0 UV-I 76 W/m 12,9 km/h (3 Bft)
19.01.2014 14:00 7,1 C 6,1 C 84 % 998,3 hPa 0,0 l/m 0 min 0 min 0,0 UV-I 58 W/m 15,4 km/h (3 Bft)
19.01.2014 14:02 7,1 C 6,1 C 84 % 998,3 hPa 0,0 l/m 0 min 0 min 0,0 UV-I 53 W/m 10,3 km/h (2 Bft)
19.01.2014 14:04 7,0 C 6,1 C 84 % 998,3 hPa 0,0 l/m 0 min 0 min 0,0 UV-I 49 W/m 0,0 km/h (0 Bft)
19.01.2014 14:06 7,0 C 6,1 C 84 % 998,3 hPa 0,0 l/m 0 min 0 min 0,0 UV-I 42 W/m 12,9 km/h (3 Bft)
19.01.2014 14:08 6,9 C 6,1 C 84 % 998,3 hPa 0,0 l/m 0 min 0 min 0,0 UV-I 39 W/m 12,9 km/h (3 Bft)
19.01.2014 14:10 6,9 C 5,6 C 84 % 998,3 hPa 0,0 l/m 0 min 0 min 0,0 UV-I 40 W/m 18,0 km/h (3 Bft)
19.01.2014 14:12 6,9 C 5,6 C 84 % 998,3 hPa 0,0 l/m 0 min 0 min 0,0 UV-I 42 W/m 20,6 km/h (4 Bft)
19.01.2014 14:14 6,9 C 5,6 C 85 % 998,4 hPa 0,0 l/m 0 min 0 min 0,0 UV-I 40 W/m 10,3 km/h (2 Bft)
19.01.2014 14:16 6,9 C 5,6 C 85 % 998,4 hPa 0,0 l/m 0 min 0 min 0,0 UV-I 37 W/m 18,0 km/h (3 Bft)
19.01.2014 14:18 6,8 C 5,6 C 85 % 998,5 hPa 0,0 l/m 0 min 0 min 0,0 UV-I 33 W/m 15,4 km/h (3 Bft)
19.01.2014 14:20 6,8 C 5,6 C 85 % 998,5 hPa 0,0 l/m 0 min 0 min 0,0 UV-I 33 W/m 7,7 km/h (2 Bft)
19.01.2014 14:22 6,8 C 5,6 C 85 % 998,5 hPa 0,0 l/m 0 min 0 min 0,0 UV-I 32 W/m 18,0 km/h (3 Bft)
19.01.2014 14:24 6,8 C 5,6 C 85 % 998,4 hPa 0,0 l/m 0 min 0 min 0,0 UV-I 32 W/m 10,3 km/h (2 Bft)
19.01.2014 14:26 6,8 C 5,6 C 85 % 998,5 hPa 0,0 l/m 0 min 0 min 0,0 UV-I 33 W/m 12,9 km/h (3 Bft)
19.01.2014 14:28 6,8 C 5,6 C 85 % 998,4 hPa 0,0 l/m 0 min 0 min 0,0 UV-I 33 W/m 10,3 km/h (2 Bft)
19.01.2014 14:30 6,8 C 5,6 C 85 % 998,5 hPa 0,0 l/m 0 min 0 min 0,0 UV-I 32 W/m 7,7 km/h (2 Bft)
19.01.2014 14:32 6,8 C 6,1 C 85 % 998,4 hPa 0,0 l/m 0 min 0 min 0,0 UV-I 32 W/m 0,0 km/h (0 Bft)
19.01.2014 14:34 6,8 C 6,1 C 85 % 998,5 hPa 0,0 l/m 0 min 0 min 0,0 UV-I 33 W/m 5,1 km/h (1 Bft)
19.01.2014 14:36 6,8 C 6,1 C 85 % 998,5 hPa 0,0 l/m 0 min 0 min 0,0 UV-I 39 W/m 12,9 km/h (3 Bft)
19.01.2014 14:38 6,8 C 6,1 C 85 % 998,5 hPa 0,0 l/m 0 min 0 min 0,0 UV-I 47 W/m 2,6 km/h (1 Bft)
19.01.2014 14:40 6,9 C 6,1 C 86 % 998,4 hPa 0,0 l/m 0 min 0 min 0,0 UV-I 56 W/m 0,0 km/h (0 Bft)
19.01.2014 14:42 6,9 C 6,1 C 86 % 998,5 hPa 0,0 l/m 0 min 0 min 0,0 UV-I 60 W/m 5,1 km/h (1 Bft)
19.01.2014 14:44 6,9 C 6,1 C 86 % 998,5 hPa 0,0 l/m 0 min 0 min 0,0 UV-I 62 W/m 2,6 km/h (1 Bft)
19.01.2014 14:46 6,9 C 6,1 C 86 % 998,5 hPa 0,0 l/m 0 min 0 min 0,0 UV-I 69 W/m 5,1 km/h (1 Bft)
19.01.2014 14:48 6,9 C 6,1 C 86 % 998,6 hPa 0,0 l/m 0 min 0 min 0,0 UV-I 74 W/m 5,1 km/h (1 Bft)
19.01.2014 14:50 7,0 C 6,1 C 86 % 998,6 hPa 0,0 l/m 0 min 0 min 0,0 UV-I 77 W/m 0,0 km/h (0 Bft)
19.01.2014 14:52 7,0 C 6,7 C 86 % 998,7 hPa 0,0 l/m 0 min 0 min 0,0 UV-I 74 W/m 0,0 km/h (0 Bft)
19.01.2014 14:54 7,1 C 6,7 C 86 % 998,6 hPa 0,0 l/m 0 min 0 min 0,0 UV-I 70 W/m 7,7 km/h (2 Bft)
19.01.2014 14:56 7,1 C 6,7 C 85 % 998,7 hPa 0,0 l/m 0 min 0 min 0,0 UV-I 63 W/m 7,7 km/h (2 Bft)
19.01.2014 14:58 7,1 C 6,1 C 85 % 998,6 hPa 0,0 l/m 0 min 0 min 0,0 UV-I 56 W/m 7,7 km/h (2 Bft)
19.01.2014 15:00 7,1 C 6,1 C 85 % 998,6 hPa 0,0 l/m 0 min 0 min 0,0 UV-I 54 W/m 0,0 km/h (0 Bft)
19.01.2014 15:02 7,1 C 6,1 C 85 % 998,7 hPa 0,0 l/m 0 min 0 min 0,0 UV-I 51 W/m 2,6 km/h (1 Bft)
19.01.2014 15:04 7,1 C 6,1 C 85 % 998,8 hPa 0,0 l/m 0 min 0 min 0,0 UV-I 47 W/m 0,0 km/h (0 Bft)
19.01.2014 15:06 7,1 C 6,1 C 85 % 998,8 hPa 0,0 l/m 0 min 0 min 0,0 UV-I 46 W/m 0,0 km/h (0 Bft)
19.01.2014 15:08 7,1 C 6,1 C 85 % 998,9 hPa 0,0 l/m 0 min 0 min 0,0 UV-I 44 W/m 0,0 km/h (0 Bft)
19.01.2014 15:10 7,1 C 6,1 C 85 % 998,8 hPa 0,0 l/m 0 min 0 min 0,0 UV-I 44 W/m 0,0 km/h (0 Bft)
19.01.2014 15:12 7,1 C 6,1 C 85 % 998,8 hPa 0,0 l/m 0 min 0 min 0,0 UV-I 44 W/m 0,0 km/h (0 Bft)
19.01.2014 15:14 7,1 C 6,1 C 86 % 998,8 hPa 0,0 l/m 0 min 0 min 0,0 UV-I 44 W/m 2,6 km/h (1 Bft)
19.01.2014 15:16 7,1 C 6,1 C 86 % 998,8 hPa 0,0 l/m 0 min 0 min 0,0 UV-I 42 W/m 0,0 km/h (0 Bft)
19.01.2014 15:18 7,1 C 6,1 C 86 % 998,8 hPa 0,0 l/m 0 min 0 min 0,0 UV-I 42 W/m 0,0 km/h (0 Bft)
19.01.2014 15:20 7,1 C 6,1 C 86 % 998,8 hPa 0,0 l/m 0 min 0 min 0,0 UV-I 40 W/m 5,1 km/h (1 Bft)
19.01.2014 15:22 7,1 C 6,1 C 86 % 998,8 hPa 0,0 l/m 0 min 0 min 0,0 UV-I 44 W/m 2,6 km/h (1 Bft)
19.01.2014 15:24 7,1 C 6,1 C 86 % 998,8 hPa 0,0 l/m 0 min 0 min 0,0 UV-I 46 W/m 0,0 km/h (0 Bft)
19.01.2014 15:26 7,1 C 6,1 C 86 % 998,9 hPa 0,0 l/m 0 min 0 min 0,0 UV-I 49 W/m 0,0 km/h (0 Bft)
19.01.2014 15:28 7,1 C 6,1 C 86 % 998,8 hPa 0,0 l/m 0 min 0 min 0,0 UV-I 51 W/m 0,0 km/h (0 Bft)
19.01.2014 15:30 7,1 C 6,1 C 86 % 998,8 hPa 0,0 l/m 0 min 0 min 0,0 UV-I 51 W/m 0,0 km/h (0 Bft)
19.01.2014 15:32 7,1 C 6,1 C 86 % 998,8 hPa 0,0 l/m 0 min 0 min 0,0 UV-I 51 W/m 0,0 km/h (0 Bft)
19.01.2014 15:34 7,1 C 6,1 C 86 % 998,7 hPa 0,0 l/m 0 min 0 min 0,0 UV-I 51 W/m 0,0 km/h (0 Bft)
19.01.2014 15:36 7,1 C 6,1 C 86 % 998,8 hPa 0,0 l/m 0 min 0 min 0,0 UV-I 51 W/m 0,0 km/h (0 Bft)
19.01.2014 15:38 7,1 C 6,1 C 86 % 998,8 hPa 0,0 l/m 0 min 0 min 0,0 UV-I 51 W/m 0,0 km/h (0 Bft)
19.01.2014 15:40 7,0 C 6,1 C 86 % 998,9 hPa 0,0 l/m 0 min 0 min 0,0 UV-I 51 W/m 0,0 km/h (0 Bft)
19.01.2014 15:42 7,0 C 6,1 C 86 % 999,0 hPa 0,0 l/m 0 min 0 min 0,0 UV-I 49 W/m 0,0 km/h (0 Bft)
19.01.2014 15:44 7,0 C 6,1 C 86 % 998,9 hPa 0,0 l/m 0 min 0 min 0,0 UV-I 46 W/m 0,0 km/h (0 Bft)
19.01.2014 15:46 7,0 C 6,1 C 86 % 998,9 hPa 0,0 l/m 0 min 0 min 0,0 UV-I 44 W/m 0,0 km/h (0 Bft)
19.01.2014 15:48 7,1 C 5,6 C 86 % 998,9 hPa 0,0 l/m 0 min 0 min 0,0 UV-I 44 W/m 0,0 km/h (0 Bft)
19.01.2014 15:50 7,1 C 5,6 C 86 % 999,0 hPa 0,0 l/m 0 min 0 min 0,0 UV-I 44 W/m 0,0 km/h (0 Bft)
19.01.2014 15:52 7,0 C 5,6 C 86 % 999,0 hPa 0,0 l/m 0 min 0 min 0,0 UV-I 46 W/m 0,0 km/h (0 Bft)
19.01.2014 15:54 7,1 C 5,6 C 86 % 999,0 hPa 0,0 l/m 0 min 0 min 0,0 UV-I 47 W/m 0,0 km/h (0 Bft)
19.01.2014 15:56 7,1 C 5,6 C 86 % 999,0 hPa 0,0 l/m 0 min 0 min 0,0 UV-I 49 W/m 0,0 km/h (0 Bft)
19.01.2014 15:58 7,1 C 6,1 C 86 % 999,0 hPa 0,0 l/m 0 min 0 min 0,0 UV-I 51 W/m 0,0 km/h (0 Bft)
19.01.2014 16:00 7,1 C 6,1 C 86 % 999,0 hPa 0,0 l/m 0 min 0 min 0,0 UV-I 51 W/m 0,0 km/h (0 Bft)
19.01.2014 16:02 7,1 C 6,1 C 86 % 999,1 hPa 0,0 l/m 0 min 0 min 0,0 UV-I 51 W/m 0,0 km/h (0 Bft)
19.01.2014 16:04 7,1 C 6,1 C 86 % 999,1 hPa 0,0 l/m 0 min 0 min 0,0 UV-I 49 W/m 0,0 km/h (0 Bft)
19.01.2014 16:06 7,1 C 6,1 C 86 % 999,2 hPa 0,0 l/m 0 min 0 min 0,0 UV-I 46 W/m 0,0 km/h (0 Bft)
19.01.2014 16:08 7,1 C 5,6 C 86 % 999,2 hPa 0,0 l/m 0 min 0 min 0,0 UV-I 42 W/m 0,0 km/h (0 Bft)
19.01.2014 16:10 7,1 C 5,6 C 86 % 999,3 hPa 0,0 l/m 0 min 0 min 0,0 UV-I 40 W/m 0,0 km/h (0 Bft)
19.01.2014 16:12 7,1 C 5,6 C 86 % 999,3 hPa 0,0 l/m 0 min 0 min 0,0 UV-I 39 W/m 0,0 km/h (0 Bft)
19.01.2014 16:14 7,1 C 5,6 C 86 % 999,3 hPa 0,0 l/m 0 min 0 min 0,0 UV-I 37 W/m 0,0 km/h (0 Bft)
19.01.2014 16:16 7,1 C 5,6 C 86 % 999,3 hPa 0,0 l/m 0 min 0 min 0,0 UV-I 37 W/m 0,0 km/h (0 Bft)
19.01.2014 16:18 7,0 C 5,6 C 86 % 999,3 hPa 0,0 l/m 0 min 0 min 0,0 UV-I 35 W/m 0,0 km/h (0 Bft)
19.01.2014 16:20 7,0 C 5,6 C 86 % 999,3 hPa 0,0 l/m 0 min 0 min 0,0 UV-I 32 W/m 0,0 km/h (0 Bft)
19.01.2014 16:22 7,0 C 5,6 C 87 % 999,3 hPa 0,0 l/m 0 min 0 min 0,0 UV-I 30 W/m 0,0 km/h (0 Bft)
19.01.2014 16:24 6,9 C 5,6 C 87 % 999,3 hPa 0,0 l/m 0 min 0 min 0,0 UV-I 30 W/m 0,0 km/h (0 Bft)
19.01.2014 16:26 6,9 C 5,6 C 87 % 999,3 hPa 0,0 l/m 0 min 0 min 0,0 UV-I 26 W/m 0,0 km/h (0 Bft)
19.01.2014 16:28 6,9 C 5,6 C 87 % 999,4 hPa 0,0 l/m 0 min 0 min 0,0 UV-I 25 W/m 0,0 km/h (0 Bft)
19.01.2014 16:30 6,9 C 5,6 C 87 % 999,4 hPa 0,0 l/m 0 min 0 min 0,0 UV-I 23 W/m 0,0 km/h (0 Bft)
19.01.2014 16:32 6,9 C 5,0 C 87 % 999,4 hPa 0,0 l/m 0 min 0 min 0,0 UV-I 23 W/m 0,0 km/h (0 Bft)
19.01.2014 16:34 6,9 C 5,0 C 87 % 999,4 hPa 0,0 l/m 0 min 0 min 0,0 UV-I 23 W/m 0,0 km/h (0 Bft)
19.01.2014 16:36 6,9 C 5,0 C 87 % 999,4 hPa 0,0 l/m 0 min 0 min 0,0 UV-I 21 W/m 0,0 km/h (0 Bft)
19.01.2014 16:38 6,9 C 5,0 C 87 % 999,4 hPa 0,0 l/m 0 min 0 min 0,0 UV-I 18 W/m 0,0 km/h (0 Bft)
19.01.2014 16:40 6,9 C 5,0 C 87 % 999,5 hPa 0,0 l/m 0 min 0 min 0,0 UV-I 16 W/m 0,0 km/h (0 Bft)
19.01.2014 16:42 6,8 C 5,0 C 87 % 999,4 hPa 0,0 l/m 0 min 0 min 0,0 UV-I 14 W/m 0,0 km/h (0 Bft)
19.01.2014 16:44 6,8 C 5,0 C 87 % 999,4 hPa 0,0 l/m 0 min 0 min 0,0 UV-I 12 W/m 0,0 km/h (0 Bft)
19.01.2014 16:46 6,8 C 5,0 C 87 % 999,4 hPa 0,0 l/m 0 min 0 min 0,0 UV-I 11 W/m 0,0 km/h (0 Bft)
19.01.2014 16:48 6,8 C 4,4 C 87 % 999,4 hPa 0,0 l/m 0 min 0 min 0,0 UV-I 11 W/m 0,0 km/h (0 Bft)
19.01.2014 16:50 6,7 C 4,4 C 87 % 999,4 hPa 0,0 l/m 0 min 0 min 0,0 UV-I 9 W/m 0,0 km/h (0 Bft)
19.01.2014 16:52 6,7 C 4,4 C 87 % 999,4 hPa 0,0 l/m 0 min 0 min 0,0 UV-I 7 W/m 0,0 km/h (0 Bft)
19.01.2014 16:54 6,6 C 4,4 C 87 % 999,4 hPa 0,0 l/m 0 min 0 min 0,0 UV-I 7 W/m 0,0 km/h (0 Bft)
19.01.2014 16:56 6,6 C 4,4 C 87 % 999,5 hPa 0,0 l/m 0 min 0 min 0,0 UV-I 5 W/m 0,0 km/h (0 Bft)
19.01.2014 16:58 6,5 C 4,4 C 88 % 999,5 hPa 0,0 l/m 0 min 0 min 0,0 UV-I 5 W/m 0,0 km/h (0 Bft)
19.01.2014 17:00 6,4 C 4,4 C 88 % 999,5 hPa 0,0 l/m 0 min 0 min 0,0 UV-I 5 W/m 0,0 km/h (0 Bft)
19.01.2014 17:02 6,4 C 3,9 C 88 % 999,5 hPa 0,0 l/m 0 min 0 min 0,0 UV-I 5 W/m 0,0 km/h (0 Bft)
19.01.2014 17:04 6,4 C 3,9 C 88 % 999,5 hPa 0,0 l/m 0 min 0 min 0,0 UV-I 5 W/m 0,0 km/h (0 Bft)
19.01.2014 17:06 6,3 C 3,9 C 88 % 999,5 hPa 0,0 l/m 0 min 0 min 0,0 UV-I 5 W/m 0,0 km/h (0 Bft)
19.01.2014 17:08 6,3 C 3,9 C 88 % 999,6 hPa 0,0 l/m 0 min 0 min 0,0 UV-I 5 W/m 0,0 km/h (0 Bft)
19.01.2014 17:10 6,3 C 3,9 C 88 % 999,6 hPa 0,0 l/m 0 min 0 min 0,0 UV-I 5 W/m 0,0 km/h (0 Bft)
19.01.2014 17:12 6,3 C 3,9 C 88 % 999,6 hPa 0,0 l/m 0 min 0 min 0,0 UV-I 0 W/m 0,0 km/h (0 Bft)
19.01.2014 17:14 6,3 C 3,9 C 88 % 999,5 hPa 0,0 l/m 0 min 0 min 0,0 UV-I 0 W/m 0,0 km/h (0 Bft)
19.01.2014 17:16 6,3 C 3,3 C 88 % 999,7 hPa 0,0 l/m 0 min 0 min 0,0 UV-I 0 W/m 0,0 km/h (0 Bft)
19.01.2014 17:18 6,2 C 3,3 C 88 % 999,7 hPa 0,0 l/m 0 min 0 min 0,0 UV-I 0 W/m 0,0 km/h (0 Bft)
19.01.2014 17:20 6,2 C 3,3 C 88 % 999,8 hPa 0,0 l/m 0 min 0 min 0,0 UV-I 0 W/m 0,0 km/h (0 Bft)
19.01.2014 17:22 6,2 C 3,3 C 88 % 999,7 hPa 0,0 l/m 0 min 0 min 0,0 UV-I 0 W/m 0,0 km/h (0 Bft)
19.01.2014 17:24 6,2 C 3,3 C 88 % 999,7 hPa 0,0 l/m 0 min 0 min 0,0 UV-I 0 W/m 0,0 km/h (0 Bft)
19.01.2014 17:26 6,2 C 3,3 C 88 % 999,7 hPa 0,0 l/m 0 min 0 min 0,0 UV-I 0 W/m 0,0 km/h (0 Bft)
19.01.2014 17:28 6,1 C 3,3 C 88 % 999,7 hPa 0,0 l/m 0 min 0 min 0,0 UV-I 0 W/m 0,0 km/h (0 Bft)
19.01.2014 17:30 6,1 C 3,3 C 88 % 999,7 hPa 0,0 l/m 0 min 0 min 0,0 UV-I 0 W/m 0,0 km/h (0 Bft)
19.01.2014 17:32 6,1 C 2,8 C 87 % 999,8 hPa 0,0 l/m 0 min 0 min 0,0 UV-I 0 W/m 0,0 km/h (0 Bft)
19.01.2014 17:34 6,0 C 2,8 C 87 % 999,8 hPa 0,0 l/m 0 min 0 min 0,0 UV-I 0 W/m 0,0 km/h (0 Bft)
19.01.2014 17:36 5,9 C 2,8 C 87 % 999,7 hPa 0,0 l/m 0 min 0 min 0,0 UV-I 0 W/m 0,0 km/h (0 Bft)
19.01.2014 17:38 5,9 C 2,8 C 87 % 999,8 hPa 0,0 l/m 0 min 0 min 0,0 UV-I 0 W/m 0,0 km/h (0 Bft)
19.01.2014 17:40 5,9 C 2,8 C 87 % 999,8 hPa 0,0 l/m 0 min 0 min 0,0 UV-I 0 W/m 0,0 km/h (0 Bft)
19.01.2014 17:42 5,8 C 2,8 C 87 % 999,7 hPa 0,0 l/m 0 min 0 min 0,0 UV-I 0 W/m 0,0 km/h (0 Bft)
19.01.2014 17:44 5,8 C 2,8 C 87 % 999,8 hPa 0,0 l/m 0 min 0 min 0,0 UV-I 0 W/m 0,0 km/h (0 Bft)
19.01.2014 17:46 5,7 C 2,8 C 87 % 999,8 hPa 0,0 l/m 0 min 0 min 0,0 UV-I 0 W/m 0,0 km/h (0 Bft)
19.01.2014 17:48 5,7 C 2,8 C 87 % 999,8 hPa 0,0 l/m 0 min 0 min 0,0 UV-I 0 W/m 0,0 km/h (0 Bft)
19.01.2014 17:50 5,6 C 2,8 C 87 % 999,8 hPa 0,0 l/m 0 min 0 min 0,0 UV-I 0 W/m 0,0 km/h (0 Bft)
19.01.2014 17:52 5,6 C 2,8 C 87 % 999,8 hPa 0,0 l/m 0 min 0 min 0,0 UV-I 0 W/m 0,0 km/h (0 Bft)
19.01.2014 17:54 5,6 C 2,8 C 87 % 999,8 hPa 0,0 l/m 0 min 0 min 0,0 UV-I 0 W/m 0,0 km/h (0 Bft)
19.01.2014 17:56 5,5 C 2,8 C 88 % 999,8 hPa 0,0 l/m 0 min 0 min 0,0 UV-I 0 W/m 0,0 km/h (0 Bft)
19.01.2014 17:58 5,5 C 2,8 C 88 % 999,8 hPa 0,0 l/m 0 min 0 min 0,0 UV-I 0 W/m 0,0 km/h (0 Bft)
19.01.2014 18:00 5,5 C 2,8 C 88 % 999,9 hPa 0,0 l/m 0 min 0 min 0,0 UV-I 0 W/m 0,0 km/h (0 Bft)
19.01.2014 18:02 5,4 C 2,8 C 88 % 999,9 hPa 0,0 l/m 0 min 0 min 0,0 UV-I 0 W/m 0,0 km/h (0 Bft)
19.01.2014 18:04 5,4 C 2,8 C 88 % 999,8 hPa 0,0 l/m 0 min 0 min 0,0 UV-I 0 W/m 0,0 km/h (0 Bft)
19.01.2014 18:06 5,4 C 2,8 C 88 % 999,8 hPa 0,0 l/m 0 min 0 min 0,0 UV-I 0 W/m 0,0 km/h (0 Bft)
19.01.2014 18:08 5,4 C 2,8 C 88 % 999,8 hPa 0,0 l/m 0 min 0 min 0,0 UV-I 0 W/m 0,0 km/h (0 Bft)
19.01.2014 18:10 5,4 C 2,8 C 88 % 999,9 hPa 0,0 l/m 0 min 0 min 0,0 UV-I 0 W/m 0,0 km/h (0 Bft)
19.01.2014 18:12 5,3 C 2,8 C 89 % 999,9 hPa 0,0 l/m 0 min 0 min 0,0 UV-I 0 W/m 0,0 km/h (0 Bft)
19.01.2014 18:14 5,3 C 2,8 C 89 % 999,9 hPa 0,0 l/m 0 min 0 min 0,0 UV-I 0 W/m 0,0 km/h (0 Bft)
19.01.2014 18:16 5,3 C 2,8 C 89 % 1000,0 hPa 0,0 l/m 0 min 0 min 0,0 UV-I 0 W/m 0,0 km/h (0 Bft)
19.01.2014 18:18 5,2 C 2,8 C 89 % 999,9 hPa 0,0 l/m 0 min 0 min 0,0 UV-I 0 W/m 0,0 km/h (0 Bft)
19.01.2014 18:20 5,2 C 2,8 C 89 % 1000,0 hPa 0,0 l/m 0 min 0 min 0,0 UV-I 0 W/m 0,0 km/h (0 Bft)
19.01.2014 18:22 5,2 C 2,8 C 89 % 1000,0 hPa 0,0 l/m 0 min 0 min 0,0 UV-I 0 W/m 0,0 km/h (0 Bft)
19.01.2014 18:24 5,2 C 3,3 C 89 % 1000,0 hPa 0,0 l/m 0 min 0 min 0,0 UV-I 0 W/m 0,0 km/h (0 Bft)
19.01.2014 18:26 5,2 C 3,3 C 89 % 1000,0 hPa 0,0 l/m 0 min 0 min 0,0 UV-I 0 W/m 0,0 km/h (0 Bft)
19.01.2014 18:28 5,2 C 3,3 C 89 % 1000,1 hPa 0,0 l/m 0 min 0 min 0,0 UV-I 0 W/m 0,0 km/h (0 Bft)
19.01.2014 18:30 5,1 C 3,3 C 89 % 1000,1 hPa 0,0 l/m 0 min 0 min 0,0 UV-I 0 W/m 0,0 km/h (0 Bft)
19.01.2014 18:32 5,1 C 3,3 C 89 % 1000,1 hPa 0,0 l/m 0 min 0 min 0,0 UV-I 0 W/m 0,0 km/h (0 Bft)
19.01.2014 18:34 5,1 C 3,3 C 89 % 1000,1 hPa 0,0 l/m 0 min 0 min 0,0 UV-I 0 W/m 0,0 km/h (0 Bft)
19.01.2014 18:36 5,1 C 3,3 C 89 % 1000,1 hPa 0,0 l/m 0 min 0 min 0,0 UV-I 0 W/m 0,0 km/h (0 Bft)
19.01.2014 18:38 5,1 C 3,3 C 90 % 1000,1 hPa 0,0 l/m 0 min 0 min 0,0 UV-I 0 W/m 0,0 km/h (0 Bft)
19.01.2014 18:40 5,1 C 3,3 C 89 % 1000,1 hPa 0,0 l/m 0 min 0 min 0,0 UV-I 0 W/m 0,0 km/h (0 Bft)
19.01.2014 18:42 5,1 C 3,3 C 90 % 1000,2 hPa 0,0 l/m 0 min 0 min 0,0 UV-I 0 W/m 0,0 km/h (0 Bft)
19.01.2014 18:44 5,1 C 3,3 C 90 % 1000,2 hPa 0,0 l/m 0 min 0 min 0,0 UV-I 0 W/m 0,0 km/h (0 Bft)
19.01.2014 18:46 5,1 C 3,3 C 90 % 1000,2 hPa 0,0 l/m 0 min 0 min 0,0 UV-I 0 W/m 0,0 km/h (0 Bft)
19.01.2014 18:48 5,0 C 3,3 C 90 % 1000,2 hPa 0,0 l/m 0 min 0 min 0,0 UV-I 0 W/m 0,0 km/h (0 Bft)
19.01.2014 18:50 5,0 C 3,3 C 90 % 1000,2 hPa 0,0 l/m 0 min 0 min 0,0 UV-I 0 W/m 0,0 km/h (0 Bft)
19.01.2014 18:52 5,0 C 3,3 C 90 % 1000,2 hPa 0,0 l/m 0 min 0 min 0,0 UV-I 0 W/m 0,0 km/h (0 Bft)
19.01.2014 18:54 5,0 C 3,3 C 90 % 1000,3 hPa 0,0 l/m 0 min 0 min 0,0 UV-I 0 W/m 0,0 km/h (0 Bft)
19.01.2014 18:56 4,9 C 3,3 C 90 % 1000,2 hPa 0,0 l/m 0 min 0 min 0,0 UV-I 0 W/m 0,0 km/h (0 Bft)
19.01.2014 18:58 4,9 C 3,3 C 90 % 1000,2 hPa 0,0 l/m 0 min 0 min 0,0 UV-I 0 W/m 0,0 km/h (0 Bft)
19.01.2014 19:00 4,9 C 3,3 C 90 % 1000,3 hPa 0,0 l/m 0 min 0 min 0,0 UV-I 0 W/m 0,0 km/h (0 Bft)
19.01.2014 19:02 4,9 C 3,3 C 90 % 1000,3 hPa 0,0 l/m 0 min 0 min 0,0 UV-I 0 W/m 0,0 km/h (0 Bft)
19.01.2014 19:04 4,9 C 3,3 C 90 % 1000,3 hPa 0,0 l/m 0 min 0 min 0,0 UV-I 0 W/m 0,0 km/h (0 Bft)
19.01.2014 19:06 4,9 C 3,3 C 90 % 1000,3 hPa 0,0 l/m 0 min 0 min 0,0 UV-I 0 W/m 0,0 km/h (0 Bft)
19.01.2014 19:08 4,9 C 3,3 C 90 % 1000,3 hPa 0,0 l/m 0 min 0 min 0,0 UV-I 0 W/m 0,0 km/h (0 Bft)
19.01.2014 19:10 4,9 C 3,3 C 90 % 1000,4 hPa 0,0 l/m 0 min 0 min 0,0 UV-I 0 W/m 0,0 km/h (0 Bft)
19.01.2014 19:12 4,9 C 3,3 C 90 % 1000,3 hPa 0,0 l/m 0 min 0 min 0,0 UV-I 0 W/m 0,0 km/h (0 Bft)
19.01.2014 19:14 4,9 C 3,3 C 90 % 1000,4 hPa 0,0 l/m 0 min 0 min 0,0 UV-I 0 W/m 0,0 km/h (0 Bft)
19.01.2014 19:16 4,9 C 3,3 C 90 % 1000,4 hPa 0,0 l/m 0 min 0 min 0,0 UV-I 0 W/m 0,0 km/h (0 Bft)
19.01.2014 19:18 4,9 C 3,3 C 90 % 1000,4 hPa 0,0 l/m 0 min 0 min 0,0 UV-I 0 W/m 0,0 km/h (0 Bft)
19.01.2014 19:20 4,9 C 3,3 C 90 % 1000,4 hPa 0,0 l/m 0 min 0 min 0,0 UV-I 0 W/m 0,0 km/h (0 Bft)
19.01.2014 19:22 4,9 C 3,3 C 90 % 1000,4 hPa 0,0 l/m 0 min 0 min 0,0 UV-I 0 W/m 0,0 km/h (0 Bft)
19.01.2014 19:24 4,9 C 3,3 C 90 % 1000,4 hPa 0,0 l/m 0 min 0 min 0,0 UV-I 0 W/m 0,0 km/h (0 Bft)
19.01.2014 19:26 4,8 C 3,3 C 90 % 1000,5 hPa 0,0 l/m 0 min 0 min 0,0 UV-I 0 W/m 0,0 km/h (0 Bft)
19.01.2014 19:28 4,8 C 3,3 C 90 % 1000,5 hPa 0,0 l/m 0 min 0 min 0,0 UV-I 0 W/m 0,0 km/h (0 Bft)
19.01.2014 19:30 4,8 C 3,3 C 91 % 1000,5 hPa 0,0 l/m 0 min 0 min 0,0 UV-I 0 W/m 0,0 km/h (0 Bft)
19.01.2014 19:32 4,8 C 3,3 C 91 % 1000,5 hPa 0,0 l/m 0 min 0 min 0,0 UV-I 0 W/m 0,0 km/h (0 Bft)
19.01.2014 19:34 4,8 C 3,3 C 91 % 1000,5 hPa 0,0 l/m 0 min 0 min 0,0 UV-I 0 W/m 0,0 km/h (0 Bft)
19.01.2014 19:36 4,8 C 3,3 C 91 % 1000,5 hPa 0,0 l/m 0 min 0 min 0,0 UV-I 0 W/m 0,0 km/h (0 Bft)
19.01.2014 19:38 4,8 C 3,3 C 91 % 1000,6 hPa 0,0 l/m 0 min 0 min 0,0 UV-I 0 W/m 0,0 km/h (0 Bft)
19.01.2014 19:40 4,8 C 3,3 C 91 % 1000,7 hPa 0,0 l/m 0 min 0 min 0,0 UV-I 0 W/m 0,0 km/h (0 Bft)
19.01.2014 19:42 4,8 C 3,3 C 91 % 1000,7 hPa 0,0 l/m 0 min 0 min 0,0 UV-I 0 W/m 0,0 km/h (0 Bft)
19.01.2014 19:44 4,8 C 3,3 C 91 % 1000,7 hPa 0,0 l/m 0 min 0 min 0,0 UV-I 0 W/m 0,0 km/h (0 Bft)
19.01.2014 19:46 4,8 C 3,3 C 91 % 1000,7 hPa 0,0 l/m 0 min 0 min 0,0 UV-I 0 W/m 0,0 km/h (0 Bft)
19.01.2014 19:48 4,8 C 3,3 C 91 % 1000,7 hPa 0,0 l/m 0 min 0 min 0,0 UV-I 0 W/m 0,0 km/h (0 Bft)
19.01.2014 19:50 4,8 C 3,3 C 91 % 1000,7 hPa 0,0 l/m 0 min 0 min 0,0 UV-I 0 W/m 0,0 km/h (0 Bft)
19.01.2014 19:52 4,7 C 3,3 C 91 % 1000,7 hPa 0,0 l/m 0 min 0 min 0,0 UV-I 0 W/m 0,0 km/h (0 Bft)
19.01.2014 19:54 4,8 C 3,3 C 91 % 1000,7 hPa 0,0 l/m 0 min 0 min 0,0 UV-I 0 W/m 0,0 km/h (0 Bft)
19.01.2014 19:56 4,7 C 3,3 C 91 % 1000,7 hPa 0,0 l/m 0 min 0 min 0,0 UV-I 0 W/m 0,0 km/h (0 Bft)
19.01.2014 19:58 4,7 C 3,3 C 91 % 1000,7 hPa 0,0 l/m 0 min 0 min 0,0 UV-I 0 W/m 0,0 km/h (0 Bft)
19.01.2014 20:00 4,7 C 3,3 C 91 % 1000,7 hPa 0,0 l/m 0 min 0 min 0,0 UV-I 0 W/m 0,0 km/h (0 Bft)
19.01.2014 20:02 4,7 C 3,3 C 91 % 1000,7 hPa 0,0 l/m 0 min 0 min 0,0 UV-I 0 W/m 0,0 km/h (0 Bft)
19.01.2014 20:04 4,7 C 3,3 C 91 % 1000,6 hPa 0,0 l/m 0 min 0 min 0,0 UV-I 0 W/m 0,0 km/h (0 Bft)
19.01.2014 20:06 4,7 C 3,3 C 91 % 1000,7 hPa 0,0 l/m 0 min 0 min 0,0 UV-I 0 W/m 0,0 km/h (0 Bft)
19.01.2014 20:08 4,7 C 3,3 C 91 % 1000,7 hPa 0,0 l/m 0 min 0 min 0,0 UV-I 0 W/m 0,0 km/h (0 Bft)
19.01.2014 20:10 4,7 C 3,3 C 91 % 1000,7 hPa 0,0 l/m 0 min 0 min 0,0 UV-I 0 W/m 0,0 km/h (0 Bft)
19.01.2014 20:12 4,7 C 3,3 C 91 % 1000,7 hPa 0,0 l/m 0 min 0 min 0,0 UV-I 0 W/m 0,0 km/h (0 Bft)
19.01.2014 20:14 4,7 C 3,3 C 91 % 1000,8 hPa 0,0 l/m 0 min 0 min 0,0 UV-I 0 W/m 0,0 km/h (0 Bft)
19.01.2014 20:16 4,7 C 3,3 C 91 % 1000,7 hPa 0,0 l/m 0 min 0 min 0,0 UV-I 0 W/m 0,0 km/h (0 Bft)
19.01.2014 20:18 4,7 C 2,8 C 91 % 1000,7 hPa 0,0 l/m 0 min 0 min 0,0 UV-I 0 W/m 0,0 km/h (0 Bft)
19.01.2014 20:20 4,7 C 2,8 C 91 % 1000,7 hPa 0,0 l/m 0 min 0 min 0,0 UV-I 0 W/m 0,0 km/h (0 Bft)
19.01.2014 20:22 4,7 C 2,8 C 91 % 1000,8 hPa 0,0 l/m 0 min 0 min 0,0 UV-I 0 W/m 0,0 km/h (0 Bft)
19.01.2014 20:24 4,7 C 2,8 C 91 % 1000,8 hPa 0,0 l/m 0 min 0 min 0,0 UV-I 0 W/m 0,0 km/h (0 Bft)
19.01.2014 20:26 4,7 C 2,8 C 91 % 1000,8 hPa 0,0 l/m 0 min 0 min 0,0 UV-I 0 W/m 0,0 km/h (0 Bft)
19.01.2014 20:28 4,7 C 2,8 C 91 % 1000,8 hPa 0,0 l/m 0 min 0 min 0,0 UV-I 0 W/m 0,0 km/h (0 Bft)
19.01.2014 20:30 4,7 C 2,8 C 91 % 1000,8 hPa 0,0 l/m 0 min 0 min 0,0 UV-I 0 W/m 0,0 km/h (0 Bft)
19.01.2014 20:32 4,7 C 2,8 C 91 % 1000,8 hPa 0,0 l/m 0 min 0 min 0,0 UV-I 0 W/m 0,0 km/h (0 Bft)
19.01.2014 20:34 4,6 C 2,8 C 91 % 1000,9 hPa 0,0 l/m 0 min 0 min 0,0 UV-I 0 W/m 0,0 km/h (0 Bft)
19.01.2014 20:36 4,6 C 2,8 C 91 % 1000,9 hPa 0,0 l/m 0 min 0 min 0,0 UV-I 0 W/m 0,0 km/h (0 Bft)
19.01.2014 20:38 4,6 C 2,8 C 91 % 1000,9 hPa 0,0 l/m 0 min 0 min 0,0 UV-I 0 W/m 0,0 km/h (0 Bft)
19.01.2014 20:40 4,6 C 2,8 C 91 % 1000,8 hPa 0,0 l/m 0 min 0 min 0,0 UV-I 0 W/m 0,0 km/h (0 Bft)
19.01.2014 20:42 4,6 C 2,8 C 91 % 1000,9 hPa 0,0 l/m 0 min 0 min 0,0 UV-I 0 W/m 0,0 km/h (0 Bft)
19.01.2014 20:44 4,6 C 2,8 C 91 % 1001,0 hPa 0,0 l/m 0 min 0 min 0,0 UV-I 0 W/m 0,0 km/h (0 Bft)
19.01.2014 20:46 4,6 C 2,8 C 91 % 1001,0 hPa 0,0 l/m 0 min 0 min 0,0 UV-I 0 W/m 0,0 km/h (0 Bft)
19.01.2014 20:48 4,6 C 2,8 C 91 % 1001,0 hPa 0,0 l/m 0 min 0 min 0,0 UV-I 0 W/m 0,0 km/h (0 Bft)
19.01.2014 20:50 4,6 C 2,8 C 91 % 1001,0 hPa 0,0 l/m 0 min 0 min 0,0 UV-I 0 W/m 0,0 km/h (0 Bft)
19.01.2014 20:52 4,6 C 2,8 C 91 % 1000,9 hPa 0,0 l/m 0 min 0 min 0,0 UV-I 0 W/m 0,0 km/h (0 Bft)
19.01.2014 20:54 4,5 C 2,8 C 92 % 1000,9 hPa 0,0 l/m 0 min 0 min 0,0 UV-I 0 W/m 0,0 km/h (0 Bft)
19.01.2014 20:56 4,5 C 2,8 C 92 % 1000,9 hPa 0,0 l/m 0 min 0 min 0,0 UV-I 0 W/m 0,0 km/h (0 Bft)
19.01.2014 20:58 4,5 C 2,8 C 92 % 1001,0 hPa 0,0 l/m 0 min 0 min 0,0 UV-I 0 W/m 0,0 km/h (0 Bft)
19.01.2014 21:00 4,5 C 2,8 C 92 % 1001,0 hPa 0,0 l/m 0 min 0 min 0,0 UV-I 0 W/m 0,0 km/h (0 Bft)
19.01.2014 21:02 4,5 C 2,8 C 92 % 1001,0 hPa 0,0 l/m 0 min 0 min 0,0 UV-I 0 W/m 0,0 km/h (0 Bft)
19.01.2014 21:04 4,4 C 2,8 C 92 % 1001,0 hPa 0,0 l/m 0 min 0 min 0,0 UV-I 0 W/m 0,0 km/h (0 Bft)
19.01.2014 21:06 4,4 C 2,8 C 92 % 1001,1 hPa 0,0 l/m 0 min 0 min 0,0 UV-I 0 W/m 0,0 km/h (0 Bft)
19.01.2014 21:08 4,4 C 2,2 C 91 % 1001,2 hPa 0,0 l/m 0 min 0 min 0,0 UV-I 0 W/m 0,0 km/h (0 Bft)
19.01.2014 21:10 4,4 C 2,2 C 91 % 1001,2 hPa 0,0 l/m 0 min 0 min 0,0 UV-I 0 W/m 0,0 km/h (0 Bft)
19.01.2014 21:12 4,4 C 2,2 C 92 % 1001,2 hPa 0,0 l/m 0 min 0 min 0,0 UV-I 0 W/m 0,0 km/h (0 Bft)
19.01.2014 21:14 4,4 C 2,2 C 92 % 1001,2 hPa 0,0 l/m 0 min 0 min 0,0 UV-I 0 W/m 0,0 km/h (0 Bft)
19.01.2014 21:16 4,4 C 2,2 C 92 % 1001,2 hPa 0,0 l/m 0 min 0 min 0,0 UV-I 0 W/m 0,0 km/h (0 Bft)
19.01.2014 21:18 4,4 C 2,2 C 92 % 1001,3 hPa 0,0 l/m 0 min 0 min 0,0 UV-I 0 W/m 0,0 km/h (0 Bft)
19.01.2014 21:20 4,4 C 2,2 C 92 % 1001,3 hPa 0,0 l/m 0 min 0 min 0,0 UV-I 0 W/m 0,0 km/h (0 Bft)
19.01.2014 21:22 4,3 C 2,2 C 92 % 1001,3 hPa 0,0 l/m 0 min 0 min 0,0 UV-I 0 W/m 0,0 km/h (0 Bft)
19.01.2014 21:24 4,3 C 2,2 C 92 % 1001,2 hPa 0,0 l/m 0 min 0 min 0,0 UV-I 0 W/m 0,0 km/h (0 Bft)
19.01.2014 21:26 4,3 C 2,2 C 92 % 1001,3 hPa 0,0 l/m 0 min 0 min 0,0 UV-I 0 W/m 0,0 km/h (0 Bft)
19.01.2014 21:28 4,3 C 2,2 C 92 % 1001,2 hPa 0,0 l/m 0 min 0 min 0,0 UV-I 0 W/m 0,0 km/h (0 Bft)
19.01.2014 21:30 4,3 C 2,2 C 92 % 1001,2 hPa 0,0 l/m 0 min 0 min 0,0 UV-I 0 W/m 0,0 km/h (0 Bft)
19.01.2014 21:32 4,3 C 2,2 C 92 % 1001,2 hPa 0,0 l/m 0 min 0 min 0,0 UV-I 0 W/m 0,0 km/h (0 Bft)
19.01.2014 21:34 4,2 C 2,2 C 92 % 1001,1 hPa 0,0 l/m 0 min 0 min 0,0 UV-I 0 W/m 0,0 km/h (0 Bft)
19.01.2014 21:36 4,2 C 2,2 C 92 % 1001,2 hPa 0,0 l/m 0 min 0 min 0,0 UV-I 0 W/m 0,0 km/h (0 Bft)
19.01.2014 21:38 4,2 C 2,2 C 92 % 1001,2 hPa 0,0 l/m 0 min 0 min 0,0 UV-I 0 W/m 0,0 km/h (0 Bft)
19.01.2014 21:40 4,2 C 2,2 C 92 % 1001,3 hPa 0,0 l/m 0 min 0 min 0,0 UV-I 0 W/m 0,0 km/h (0 Bft)
19.01.2014 21:42 4,2 C 2,2 C 92 % 1001,3 hPa 0,0 l/m 0 min 0 min 0,0 UV-I 0 W/m 0,0 km/h (0 Bft)
19.01.2014 21:44 4,2 C 2,2 C 92 % 1001,2 hPa 0,0 l/m 0 min 0 min 0,0 UV-I 0 W/m 0,0 km/h (0 Bft)
19.01.2014 21:46 4,2 C 2,2 C 97 % 1001,2 hPa 0,0 l/m 0 min 0 min 0,0 UV-I 0 W/m 0,0 km/h (0 Bft)
19.01.2014 21:48 4,2 C 2,2 C 92 % 1001,3 hPa 0,0 l/m 0 min 0 min 0,0 UV-I 0 W/m 0,0 km/h (0 Bft)
19.01.2014 21:50 4,1 C 2,2 C 92 % 1001,2 hPa 0,0 l/m 0 min 0 min 0,0 UV-I 0 W/m 0,0 km/h (0 Bft)
19.01.2014 21:52 4,1 C 2,2 C 92 % 1001,3 hPa 0,0 l/m 0 min 0 min 0,0 UV-I 0 W/m 0,0 km/h (0 Bft)
19.01.2014 21:54 4,1 C 2,2 C 92 % 1001,3 hPa 0,0 l/m 0 min 0 min 0,0 UV-I 0 W/m 0,0 km/h (0 Bft)
19.01.2014 21:56 4,1 C 2,2 C 92 % 1001,3 hPa 0,0 l/m 0 min 0 min 0,0 UV-I 0 W/m 0,0 km/h (0 Bft)
19.01.2014 21:58 4,1 C 2,2 C 92 % 1001,3 hPa 0,0 l/m 0 min 0 min 0,0 UV-I 0 W/m 0,0 km/h (0 Bft)
19.01.2014 22:00 4,1 C 2,2 C 92 % 1001,3 hPa 0,0 l/m 0 min 0 min 0,0 UV-I 0 W/m 0,0 km/h (0 Bft)
19.01.2014 22:02 4,0 C 2,2 C 92 % 1001,3 hPa 0,0 l/m 0 min 0 min 0,0 UV-I 0 W/m 0,0 km/h (0 Bft)
19.01.2014 22:04 4,0 C 2,2 C 92 % 1001,3 hPa 0,0 l/m 0 min 0 min 0,0 UV-I 0 W/m 0,0 km/h (0 Bft)
19.01.2014 22:06 4,0 C 2,2 C 92 % 1001,3 hPa 0,0 l/m 0 min 0 min 0,0 UV-I 0 W/m 0,0 km/h (0 Bft)
19.01.2014 22:08 4,0 C 2,2 C 92 % 1001,3 hPa 0,0 l/m 0 min 0 min 0,0 UV-I 0 W/m 0,0 km/h (0 Bft)
19.01.2014 22:10 3,9 C 2,2 C 92 % 1001,3 hPa 0,0 l/m 0 min 0 min 0,0 UV-I 0 W/m 0,0 km/h (0 Bft)
19.01.2014 22:12 3,9 C 2,2 C 92 % 1001,3 hPa 0,0 l/m 0 min 0 min 0,0 UV-I 0 W/m 0,0 km/h (0 Bft)
19.01.2014 22:14 3,9 C 1,7 C 92 % 1001,3 hPa 0,0 l/m 0 min 0 min 0,0 UV-I 0 W/m 0,0 km/h (0 Bft)
19.01.2014 22:16 3,9 C 1,7 C 92 % 1001,3 hPa 0,0 l/m 0 min 0 min 0,0 UV-I 0 W/m 0,0 km/h (0 Bft)
19.01.2014 22:18 3,9 C 1,7 C 92 % 1001,4 hPa 0,0 l/m 0 min 0 min 0,0 UV-I 0 W/m 0,0 km/h (0 Bft)
19.01.2014 22:20 3,9 C 1,7 C 92 % 1001,3 hPa 0,0 l/m 0 min 0 min 0,0 UV-I 0 W/m 0,0 km/h (0 Bft)
19.01.2014 22:22 3,8 C 1,7 C 92 % 1001,4 hPa 0,0 l/m 0 min 0 min 0,0 UV-I 0 W/m 0,0 km/h (0 Bft)
19.01.2014 22:24 3,8 C 1,7 C 92 % 1001,4 hPa 0,0 l/m 0 min 0 min 0,0 UV-I 0 W/m 0,0 km/h (0 Bft)
19.01.2014 22:26 3,8 C 1,7 C 92 % 1001,3 hPa 0,0 l/m 0 min 0 min 0,0 UV-I 0 W/m 0,0 km/h (0 Bft)
19.01.2014 22:28 3,8 C 1,7 C 92 % 1001,4 hPa 0,0 l/m 0 min 0 min 0,0 UV-I 0 W/m 0,0 km/h (0 Bft)
19.01.2014 22:30 3,8 C 1,7 C 92 % 1001,4 hPa 0,0 l/m 0 min 0 min 0,0 UV-I 0 W/m 0,0 km/h (0 Bft)
19.01.2014 22:32 3,7 C 1,7 C 92 % 1001,3 hPa 0,0 l/m 0 min 0 min 0,0 UV-I 0 W/m 0,0 km/h (0 Bft)
19.01.2014 22:34 3,7 C 1,7 C 92 % 1001,3 hPa 0,0 l/m 0 min 0 min 0,0 UV-I 0 W/m 0,0 km/h (0 Bft)
19.01.2014 22:36 3,7 C 1,7 C 92 % 1001,4 hPa 0,0 l/m 0 min 0 min 0,0 UV-I 0 W/m 0,0 km/h (0 Bft)
19.01.2014 22:38 3,7 C 1,1 C 92 % 1001,4 hPa 0,0 l/m 0 min 0 min 0,0 UV-I 0 W/m 0,0 km/h (0 Bft)
19.01.2014 22:40 3,7 C 1,1 C 92 % 1001,4 hPa 0,0 l/m 0 min 0 min 0,0 UV-I 0 W/m 0,0 km/h (0 Bft)
19.01.2014 22:42 3,6 C 1,1 C 92 % 1001,5 hPa 0,0 l/m 0 min 0 min 0,0 UV-I 0 W/m 0,0 km/h (0 Bft)
19.01.2014 22:44 3,6 C 1,1 C 92 % 1001,4 hPa 0,0 l/m 0 min 0 min 0,0 UV-I 0 W/m 0,0 km/h (0 Bft)
19.01.2014 22:46 3,6 C 1,7 C 92 % 1001,5 hPa 0,0 l/m 0 min 0 min 0,0 UV-I 0 W/m 0,0 km/h (0 Bft)
19.01.2014 22:48 3,6 C 1,7 C 92 % 1001,5 hPa 0,0 l/m 0 min 0 min 0,0 UV-I 0 W/m 0,0 km/h (0 Bft)
19.01.2014 22:50 3,5 C 1,7 C 92 % 1001,5 hPa 0,0 l/m 0 min 0 min 0,0 UV-I 0 W/m 0,0 km/h (0 Bft)
19.01.2014 22:52 3,5 C 1,7 C 92 % 1001,6 hPa 0,0 l/m 0 min 0 min 0,0 UV-I 0 W/m 0,0 km/h (0 Bft)
19.01.2014 22:54 3,5 C 1,7 C 92 % 1001,5 hPa 0,0 l/m 0 min 0 min 0,0 UV-I 0 W/m 0,0 km/h (0 Bft)
19.01.2014 22:56 3,4 C 1,7 C 92 % 1001,6 hPa 0,0 l/m 0 min 0 min 0,0 UV-I 0 W/m 0,0 km/h (0 Bft)
19.01.2014 22:58 3,4 C 1,7 C 92 % 1001,6 hPa 0,0 l/m 0 min 0 min 0,0 UV-I 0 W/m 0,0 km/h (0 Bft)
19.01.2014 23:00 3,4 C 1,7 C 92 % 1001,6 hPa 0,0 l/m 0 min 0 min 0,0 UV-I 0 W/m 0,0 km/h (0 Bft)
19.01.2014 23:02 3,4 C 1,7 C 92 % 1001,6 hPa 0,0 l/m 0 min 0 min 0,0 UV-I 0 W/m 0,0 km/h (0 Bft)
19.01.2014 23:04 3,4 C 2,2 C 92 % 1001,6 hPa 0,0 l/m 0 min 0 min 0,0 UV-I 0 W/m 0,0 km/h (0 Bft)
19.01.2014 23:06 3,4 C 2,2 C 92 % 1001,6 hPa 0,0 l/m 0 min 0 min 0,0 UV-I 0 W/m 0,0 km/h (0 Bft)
19.01.2014 23:08 3,4 C 2,2 C 92 % 1001,6 hPa 0,0 l/m 0 min 0 min 0,0 UV-I 0 W/m 0,0 km/h (0 Bft)
19.01.2014 23:10 3,4 C 2,2 C 92 % 1001,7 hPa 0,0 l/m 0 min 0 min 0,0 UV-I 0 W/m 0,0 km/h (0 Bft)
19.01.2014 23:12 3,4 C 2,2 C 92 % 1001,7 hPa 0,0 l/m 0 min 0 min 0,0 UV-I 0 W/m 0,0 km/h (0 Bft)
19.01.2014 23:14 3,4 C 2,2 C 92 % 1001,7 hPa 0,0 l/m 0 min 0 min 0,0 UV-I 0 W/m 0,0 km/h (0 Bft)
19.01.2014 23:16 3,4 C 2,2 C 93 % 1001,7 hPa 0,0 l/m 0 min 0 min 0,0 UV-I 0 W/m 0,0 km/h (0 Bft)
19.01.2014 23:18 3,4 C 2,8 C 93 % 1001,7 hPa 0,0 l/m 0 min 0 min 0,0 UV-I 0 W/m 0,0 km/h (0 Bft)
19.01.2014 23:20 3,4 C 2,8 C 93 % 1001,7 hPa 0,0 l/m 0 min 0 min 0,0 UV-I 0 W/m 0,0 km/h (0 Bft)
19.01.2014 23:22 3,5 C 2,8 C 93 % 1001,7 hPa 0,0 l/m 0 min 0 min 0,0 UV-I 0 W/m 0,0 km/h (0 Bft)
19.01.2014 23:24 3,6 C 2,8 C 93 % 1001,6 hPa 0,0 l/m 0 min 0 min 0,0 UV-I 0 W/m 0,0 km/h (0 Bft)
19.01.2014 23:26 3,6 C 2,8 C 93 % 1001,7 hPa 0,0 l/m 0 min 0 min 0,0 UV-I 0 W/m 0,0 km/h (0 Bft)
19.01.2014 23:28 3,7 C 2,8 C 93 % 1001,7 hPa 0,0 l/m 0 min 0 min 0,0 UV-I 0 W/m 0,0 km/h (0 Bft)
19.01.2014 23:30 3,7 C 3,3 C 94 % 1001,7 hPa 0,0 l/m 0 min 0 min 0,0 UV-I 0 W/m 0,0 km/h (0 Bft)
19.01.2014 23:32 3,8 C 3,3 C 94 % 1001,7 hPa 0,0 l/m 0 min 0 min 0,0 UV-I 0 W/m 0,0 km/h (0 Bft)
19.01.2014 23:34 3,8 C 3,3 C 94 % 1001,7 hPa 0,0 l/m 0 min 0 min 0,0 UV-I 0 W/m 0,0 km/h (0 Bft)
19.01.2014 23:36 3,8 C 3,3 C 94 % 1001,7 hPa 0,0 l/m 0 min 0 min 0,0 UV-I 0 W/m 0,0 km/h (0 Bft)
19.01.2014 23:38 3,9 C 3,3 C 94 % 1001,7 hPa 0,0 l/m 0 min 0 min 0,0 UV-I 0 W/m 0,0 km/h (0 Bft)
19.01.2014 23:40 3,9 C 3,3 C 94 % 1001,7 hPa 0,0 l/m 0 min 0 min 0,0 UV-I 0 W/m 0,0 km/h (0 Bft)
19.01.2014 23:42 3,9 C 3,3 C 94 % 1001,7 hPa 0,0 l/m 0 min 0 min 0,0 UV-I 0 W/m 0,0 km/h (0 Bft)
19.01.2014 23:44 4,0 C 3,3 C 94 % 1001,7 hPa 0,0 l/m 0 min 0 min 0,0 UV-I 0 W/m 0,0 km/h (0 Bft)
19.01.2014 23:46 4,0 C 3,3 C 94 % 1001,7 hPa 0,0 l/m 0 min 0 min 0,0 UV-I 0 W/m 0,0 km/h (0 Bft)
19.01.2014 23:48 4,1 C 3,3 C 94 % 1001,7 hPa 0,0 l/m 0 min 0 min 0,0 UV-I 0 W/m 0,0 km/h (0 Bft)
19.01.2014 23:50 4,1 C 3,3 C 94 % 1001,7 hPa 0,0 l/m 0 min 0 min 0,0 UV-I 0 W/m 0,0 km/h (0 Bft)
19.01.2014 23:52 4,1 C 3,3 C 94 % 1001,7 hPa 0,0 l/m 0 min 0 min 0,0 UV-I 0 W/m 0,0 km/h (0 Bft)
19.01.2014 23:54 4,2 C 3,3 C 94 % 1001,6 hPa 0,0 l/m 0 min 0 min 0,0 UV-I 0 W/m 0,0 km/h (0 Bft)
19.01.2014 23:56 4,2 C 3,3 C 94 % 1001,6 hPa 0,0 l/m 0 min 0 min 0,0 UV-I 0 W/m 0,0 km/h (0 Bft)
19.01.2014 23:58 4,2 C 3,3 C 95 % 1001,7 hPa 0,0 l/m 0 min 0 min 0,0 UV-I 0 W/m 0,0 km/h (0 Bft)
_ Min-Zeit 22:56 22:38 13:32 06:22 - - - - - 04:58
Minimum _ 3,4 C 1,1 C 82 % 996,4 hPa - - - - - 0,0 km/h (0 Bft)
_ Max-Zeit 13:30 13:26 21:46 23:10 00:00 12:50 05:54 00:00 13:26 06:18
Maximum _ 7,7 C 7,2 C 97 % 1001,7 hPa 0,0 l/m 2 min 2 min 0,0 UV-I 262 W/m 33,5 km/h
O-SO (5 Bft)
Durchschnitt _ 5,3 C 3,9 C 88 % 998,7 hPa #0,0 l/m #34 min. #12 min. 0,0 UV-I 70 W/m 10,1 km/h (2 Bft)
© 2014 W. Hausmann